CW1648 Weather Reports


time (UTC)temp
F
wind
direction
speed
knots
gust
knots
rain 1hr
in
rain 24hr
in
rain mn
in
humidity
%
barometer
mb
20260502203521 61 258 0.0 6.1 0.00 0.00 0.00 35 1007.6
20260502203513 61 263 0.0 6.1 0.00 0.00 0.00 35 1007.7
20260502203505 60 268 0.0 8.7 0.00 0.00 0.00 40 1007.8
20260502203501 61 221 0.0 6.1 0.00 0.00 0.00 37 1007.7
20260502203456 60 301 0.0 8.7 0.00 0.00 0.00 39 1007.7
20260502203450 61 309 0.0 6.1 0.00 0.00 0.00 37 1007.7
20260502203119 60 0 0.0 8.7 0.00 0.00 0.00 39 1007.8
20260502203021 60 360 0.0 8.7 0.00 0.00 0.00 38 1007.7
20260502203001 60 0 0.0 8.7 0.00 0.00 0.00 38 1007.8
20260502202909 60 0 0.0 8.7 0.00 0.00 0.00 38 1007.8
20260502202809 60 0 0.0 8.7 0.00 0.00 0.00 38 1007.8
20260502202707 60 0 0.0 8.7 0.00 0.00 0.00 37 1007.8
20260502202607 60 0 0.0 8.7 0.00 0.00 0.00 36 1007.8
20260502202521 60 360 0.0 8.7 0.00 0.00 0.00 36 1007.8
20260502202509 60 0 0.0 8.7 0.00 0.00 0.00 36 1007.9
20260502202501 60 0 0.0 8.7 0.00 0.00 0.00 36 1007.9
20260502202406 60 0 0.0 8.7 0.00 0.00 0.00 36 1007.9
20260502202305 60 0 0.0 0.0 0.00 0.00 0.00 37 1007.8
20260502202204 60 0 0.0 0.0 0.00 0.00 0.00 38 1007.9
20260502202104 60 0 0.0 0.0 0.00 0.00 0.00 37 1007.9
20260502202021 60 360 0.0 0.9 0.00 0.00 0.00 40 1007.7
20260502202000 60 0 0.0 0.9 0.00 0.00 0.00 40 1007.8
20260502201917 60 0 0.0 2.6 0.00 0.00 0.00 38 1007.9
20260502201913 60 0 0.0 0.9 0.00 0.00 0.00 39 1007.8
20260502201703 60 0 0.0 2.6 0.00 0.00 0.00 37 1007.9
20260502201602 60 0 0.0 2.6 0.00 0.00 0.00 37 1008.0
20260502201521 60 360 0.0 2.6 0.00 0.00 0.00 40 1007.9
20260502201503 60 0 0.0 2.6 0.00 0.00 0.00 40 1008.0
20260502201401 60 0 0.0 2.6 0.00 0.00 0.00 40 1008.0
20260502201300 60 0 0.0 2.6 0.00 0.00 0.00 39 1008.0
20260502201200 60 0 0.0 2.6 0.00 0.00 0.00 37 1008.0
20260502201058 60 0 0.0 2.6 0.00 0.00 0.00 36 1008.0
20260502201021 60 360 0.0 2.6 0.00 0.00 0.00 36 1007.9
20260502200958 60 0 0.0 2.6 0.00 0.00 0.00 36 1008.0
20260502200857 60 0 0.0 2.6 0.00 0.00 0.00 37 1008.0
20260502200757 60 0 0.0 1.7 0.00 0.00 0.00 38 1007.9
20260502200657 60 0 0.0 0.9 0.00 0.00 0.00 36 1008.0
20260502200555 61 284 0.0 0.9 0.00 0.00 0.00 36 1007.9
20260502200521 61 22 0.0 0.9 0.00 0.00 0.00 36 1007.8
20260502200501 61 15 0.0 0.9 0.00 0.00 0.00 34 1007.9
20260502200456 61 28 0.0 0.9 0.00 0.00 0.00 34 1007.9
20260502200354 61 44 0.0 0.9 0.00 0.00 0.00 34 1007.9
20260502200254 61 351 0.0 0.9 0.00 0.00 0.00 36 1008.0
20260502200154 61 17 0.0 0.9 0.00 0.00 0.00 34 1007.9
20260502200050 61 355 0.0 0.9 0.00 0.00 0.00 38 1008.0
20260502200021 61 255 0.0 0.9 0.00 0.00 0.00 38 1007.9
20260502195957 61 254 0.0 0.9 0.00 0.00 0.00 36 1008.0
20260502195952 61 0 0.0 0.9 0.00 0.00 0.00 36 1008.0
20260502195916 61 269 0.0 0.0 0.00 0.00 0.00 38 1008.1
20260502195912 61 263 0.0 0.9 0.00 0.00 0.00 36 1008.0
20260502195758 61 251 0.0 0.0 0.00 0.00 0.00 36 1008.0
20260502195617 61 249 0.0 0.0 0.00 0.00 0.00 38 1008.1
20260502195611 61 304 0.0 0.0 0.00 0.00 0.00 37 1008.0
20260502195521 61 306 0.0 0.0 0.00 0.00 0.00 37 1007.9
20260502195457 61 302 0.0 0.0 0.00 0.00 0.00 39 1008.0
20260502195247 61 0 0.0 0.0 0.00 0.00 0.00 38 1008.1
20260502195200 61 0 0.0 0.0 0.00 0.00 0.00 37 1008.1
20260502195155 61 0 0.0 0.0 0.00 0.00 0.00 37 1008.0
20260502195021 61 360 0.0 0.0 0.00 0.00 0.00 37 1008.0
20260502194946 61 0 0.0 0.0 0.00 0.00 0.00 37 1008.1
20260502194845 61 0 0.0 0.0 0.00 0.00 0.00 36 1008.1
20260502194744 61 0 0.0 0.0 0.00 0.00 0.00 40 1008.2
20260502194644 61 0 0.0 0.0 0.00 0.00 0.00 38 1008.2
20260502194543 61 0 0.0 0.0 0.00 0.00 0.00 41 1008.2
20260502194522 61 360 0.0 0.9 0.00 0.00 0.00 40 1008.1
20260502194444 61 0 0.0 0.9 0.00 0.00 0.00 40 1008.2
20260502194354 61 0 0.0 3.5 0.00 0.00 0.00 37 1008.3
20260502194350 61 0 0.0 3.5 0.00 0.00 0.00 39 1008.2
20260502194140 61 0 0.0 3.5 0.00 0.00 0.00 38 1008.3
20260502194039 61 0 0.0 3.5 0.00 0.00 0.00 37 1008.3
20260502194021 61 360 0.0 3.5 0.00 0.00 0.00 37 1008.2
20260502193953 61 0 0.0 3.5 0.00 0.00 0.00 37 1008.3
20260502193938 62 0 0.0 3.5 0.00 0.00 0.00 37 1008.3
20260502193838 62 0 0.0 3.5 0.00 0.00 0.00 36 1008.4
20260502193738 62 0 0.0 3.5 0.00 0.00 0.00 39 1008.5
20260502193715 62 0 0.0 3.5 0.00 0.00 0.00 38 1008.5
20260502193638 62 0 0.0 3.5 0.00 0.00 0.00 39 1008.4
20260502193605 62 0 0.0 3.5 0.00 0.00 0.00 39 1008.4
20260502193521 62 360 0.0 3.5 0.00 0.00 0.00 38 1008.4
20260502193450 62 0 0.0 2.6 0.00 0.00 0.00 37 1008.4
20260502193446 62 216 0.0 3.5 0.00 0.00 0.00 38 1008.5
20260502193237 62 245 0.0 2.6 0.00 0.00 0.00 37 1008.5
20260502193136 62 0 0.0 2.6 0.00 0.00 0.00 38 1008.5
20260502193035 62 256 0.0 2.6 0.00 0.00 0.00 39 1008.5
20260502193021 62 221 0.0 2.6 0.00 0.00 0.00 39 1008.5
20260502192933 62 219 0.0 2.6 0.00 0.00 0.00 40 1008.6
20260502192832 61 280 0.0 2.6 0.00 0.00 0.00 39 1008.6
20260502192731 61 186 0.0 2.6 0.00 0.00 0.00 40 1008.6
20260502192644 61 295 0.0 2.6 0.00 0.00 0.00 41 1008.5
20260502192640 61 216 0.0 2.6 0.00 0.00 0.00 41 1008.5
20260502192521 61 296 0.0 2.6 0.00 0.00 0.00 41 1008.4
20260502192451 61 296 0.0 2.6 0.00 0.00 0.00 38 1008.5
20260502192430 61 211 0.0 2.6 0.00 0.00 0.00 38 1008.5
20260502192329 61 207 0.0 2.6 0.00 0.00 0.00 38 1008.6
20260502192228 61 257 0.0 1.7 0.00 0.00 0.00 38 1008.6
20260502192128 61 338 0.0 2.6 0.00 0.00 0.00 39 1008.6
20260502192026 61 0 0.0 2.6 0.00 0.00 0.00 39 1008.6
20260502192021 61 360 0.0 2.6 0.00 0.00 0.00 39 1008.6
20260502191926 61 0 0.0 2.6 0.00 0.00 0.00 37 1008.7
20260502191848 61 258 0.0 2.6 0.00 0.00 0.00 37 1008.7
20260502191735 61 260 0.0 2.6 0.00 0.00 0.00 38 1008.7
20260502191524 61 0 0.0 2.6 0.00 0.00 0.00 40 1008.7
20260502191521 61 360 0.0 2.6 0.00 0.00 0.00 40 1008.6
20260502191446 61 0 0.0 2.6 0.00 0.00 0.00 40 1008.7
20260502191423 61 255 0.0 2.6 0.00 0.00 0.00 41 1008.7
20260502191322 61 247 0.0 2.6 0.00 0.00 0.00 40 1008.7
20260502191222 61 229 0.0 2.6 0.00 0.00 0.00 38 1008.7
20260502191121 61 263 0.0 0.0 0.00 0.00 0.00 39 1008.8
20260502191021 61 232 0.0 0.0 0.00 0.00 0.00 41 1008.8
20260502190946 61 262 0.0 0.0 0.00 0.00 0.00 41 1008.9
20260502190920 61 0 0.0 0.0 0.00 0.00 0.00 43 1008.9
20260502190820 61 0 0.0 0.0 0.00 0.00 0.00 41 1008.9
20260502190720 61 0 0.0 0.0 0.00 0.00 0.00 40 1008.9
20260502190704 61 0 0.0 0.0 0.00 0.00 0.00 42 1008.9
20260502190619 61 0 0.0 0.0 0.00 0.00 0.00 42 1008.9
20260502190555 61 0 0.0 0.0 0.00 0.00 0.00 42 1009.0
20260502190536 61 360 0.0 0.0 0.00 0.00 0.00 42 1008.8
20260502190418 61 0 0.0 0.0 0.00 0.00 0.00 41 1008.9
20260502190317 60 0 0.0 8.7 0.00 0.00 0.00 40 1009.0
20260502190231 60 0 0.0 8.7 0.00 0.00 0.00 40 1008.9
20260502190227 60 0 0.0 8.7 0.00 0.00 0.00 39 1008.9
20260502190034 60 0 0.0 8.7 0.00 0.00 0.00 41 1008.9
20260502190030 60 0 0.0 8.7 0.00 0.00 0.00 41 1008.9
20260502190022 60 0 0.0 8.7 0.00 0.00 0.00 40 1008.9
20260502185816 60 0 0.0 8.7 0.00 0.00 0.00 39 1009.0
20260502185728 60 0 0.0 8.7 0.00 0.00 0.00 39 1009.0
20260502185724 60 0 0.0 8.7 0.00 0.00 0.00 39 1009.0
20260502185521 60 360 0.0 8.7 0.00 0.00 0.00 38 1009.0
20260502185515 60 0 0.0 8.7 0.00 0.00 0.00 38 1009.1
20260502185446 60 0 0.0 8.7 0.00 0.00 0.00 37 1009.1
20260502185414 60 0 0.0 8.7 0.00 0.00 0.00 39 1009.1
20260502185340 60 0 0.0 4.3 0.00 0.00 0.00 40 1009.1
20260502185335 60 0 0.0 4.3 0.00 0.00 0.00 39 1009.1
20260502185331 60 0 0.0 4.3 0.00 0.00 0.00 39 1009.1
20260502185021 60 360 0.0 1.7 0.00 0.00 0.00 41 1009.0
20260502185011 60 0 0.0 1.7 0.00 0.00 0.00 41 1009.1
20260502184946 60 0 0.0 1.7 0.00 0.00 0.00 41 1009.1
20260502184912 60 0 0.0 1.7 0.00 0.00 0.00 41 1009.2
20260502184833 60 0 0.0 1.7 0.00 0.00 0.00 41 1009.1
20260502184829 59 0 0.0 1.7 0.00 0.00 0.00 42 1009.1
20260502184824 59 0 0.0 1.7 0.00 0.00 0.00 41 1009.1
20260502184820 60 0 0.0 1.7 0.00 0.00 0.00 42 1009.1
20260502184702 60 0 0.0 1.7 0.00 0.00 0.00 40 1009.1
20260502184521 59 360 0.0 1.7 0.00 0.00 0.00 42 1009.0
20260502184411 59 0 0.0 1.7 0.00 0.00 0.00 41 1009.1
20260502184403 59 0 0.0 1.7 0.00 0.00 0.00 41 1009.1
20260502184358 59 0 0.0 1.7 0.00 0.00 0.00 41 1009.1
20260502184246 58 0 0.0 1.7 0.00 0.00 0.00 41 1009.1
20260502184240 59 0 0.0 1.7 0.00 0.00 0.00 43 1009.1
20260502184231 59 0 0.0 1.7 0.00 0.00 0.00 42 1009.1
20260502184021 59 360 0.0 1.7 0.00 0.00 0.00 41 1009.0
20260502183806 58 0 0.0 0.0 0.00 0.00 0.00 42 1009.1
20260502183707 58 0 0.0 0.9 0.00 0.00 0.00 41 1009.1
20260502183606 58 0 0.0 0.9 0.00 0.00 0.00 40 1009.0
20260502183521 58 360 0.0 0.9 0.00 0.00 0.00 40 1009.0
20260502183506 58 0 0.0 0.9 0.00 0.00 0.00 40 1009.0
20260502183442 58 0 0.0 0.9 0.00 0.00 0.00 40 1009.0
20260502183406 58 0 0.0 0.9 0.00 0.00 0.00 41 1009.1
20260502183305 58 0 0.0 0.9 0.00 0.00 0.00 43 1009.2
20260502183239 58 0 0.0 0.9 0.00 0.00 0.00 42 1009.2
20260502183235 58 0 0.0 0.9 0.00 0.00 0.00 43 1009.2
20260502183230 58 0 0.0 0.9 0.00 0.00 0.00 42 1009.2
20260502183021 58 360 0.0 0.9 0.00 0.00 0.00 43 1009.2
20260502182904 58 0 0.0 0.9 0.00 0.00 0.00 43 1009.2
20260502182824 58 0 0.0 0.9 0.00 0.00 0.00 42 1009.2
20260502182710 58 0 0.0 0.0 0.00 0.00 0.00 43 1009.1
20260502182521 58 360 0.0 0.0 0.00 0.00 0.00 40 1009.1
20260502182440 58 0 0.0 0.0 0.00 0.00 0.00 40 1009.1
20260502182400 58 0 0.0 0.0 0.00 0.00 0.00 43 1009.1
20260502182300 58 0 0.0 0.0 0.00 0.00 0.00 42 1009.1
20260502182200 58 0 0.0 0.0 0.00 0.00 0.00 42 1009.1
20260502182059 58 0 0.0 0.0 0.00 0.00 0.00 42 1009.1
20260502182021 58 360 0.0 0.0 0.00 0.00 0.00 42 1009.0
20260502182018 58 0 0.0 0.0 0.00 0.00 0.00 42 1009.0
20260502181907 58 0 0.0 0.9 0.00 0.00 0.00 41 1009.0
20260502181657 58 0 0.0 0.9 0.00 0.00 0.00 41 1009.1
20260502181629 58 0 0.0 5.2 0.00 0.00 0.00 40 1009.1
20260502181624 59 0 0.0 5.2 0.00 0.00 0.00 39 1009.2
20260502181619 58 0 0.0 5.2 0.00 0.00 0.00 42 1009.2
20260502181521 58 360 0.0 5.2 0.00 0.00 0.00 40 1009.0
20260502181502 58 0 0.0 5.2 0.00 0.00 0.00 40 1009.1
20260502181255 59 0 0.0 5.2 0.00 0.00 0.00 39 1009.2
20260502181154 59 0 0.0 5.2 0.00 0.00 0.00 40 1009.2
20260502181053 59 0 0.0 5.2 0.00 0.00 0.00 43 1009.3
20260502181021 59 360 0.0 5.2 0.00 0.00 0.00 42 1009.1
20260502180951 59 0 0.0 5.2 0.00 0.00 0.00 42 1009.2
20260502180938 59 0 0.0 5.2 0.00 0.00 0.00 41 1009.2
20260502180851 59 0 0.0 5.2 0.00 0.00 0.00 42 1009.3
20260502180751 59 0 0.0 5.2 0.00 0.00 0.00 41 1009.2
20260502180649 59 0 0.0 5.2 0.00 0.00 0.00 42 1009.2
20260502180549 59 0 0.0 2.6 0.00 0.00 0.00 40 1009.2
20260502180521 59 360 0.0 2.6 0.00 0.00 0.00 40 1009.1
20260502180449 59 0 0.0 2.6 0.00 0.00 0.00 40 1009.2
20260502180435 59 0 0.0 2.6 0.00 0.00 0.00 41 1009.2
20260502180348 59 0 0.0 2.6 0.00 0.00 0.00 42 1009.2
20260502180249 59 0 0.0 2.6 0.00 0.00 0.00 41 1009.2
20260502180206 59 0 0.0 5.2 0.00 0.00 0.00 43 1009.2
20260502180201 59 0 0.0 5.2 0.00 0.00 0.00 41 1009.2
20260502180152 59 0 0.0 5.2 0.00 0.00 0.00 43 1009.2
20260502170422 57 0 0.0 1.7 0.00 0.00 0.00 47 1009.3
20260502170334 57 0 0.0 1.7 0.00 0.00 0.00 48 1009.3
20260502170330 57 0 0.0 1.7 0.00 0.00 0.00 47 1009.3
20260502170152 57 0 0.0 1.7 0.00 0.00 0.00 45 1009.3
20260502170149 57 0 0.0 0.9 0.00 0.00 0.00 44 1009.3
20260502170143 57 0 0.0 1.7 0.00 0.00 0.00 47 1009.2
20260502164308 58 0 0.0 0.9 0.00 0.00 0.00 49 1009.5
20260502164207 58 0 0.0 0.9 0.00 0.00 0.00 48 1009.5
20260502164106 57 0 0.0 0.9 0.00 0.00 0.00 48 1009.5
20260502164021 57 360 0.0 0.9 0.00 0.00 0.00 47 1009.6
20260502164006 57 0 0.0 0.9 0.00 0.00 0.00 47 1009.6
20260502163922 57 0 0.0 0.9 0.00 0.00 0.00 47 1009.6
20260502163905 57 0 0.0 0.9 0.00 0.00 0.00 47 1009.5
20260502163804 57 0 0.0 2.6 0.00 0.00 0.00 47 1009.5
20260502163704 57 0 0.0 2.6 0.00 0.00 0.00 47 1009.4
20260502163604 57 0 0.0 3.5 0.00 0.00 0.00 46 1009.4
20260502163551 57 360 0.0 3.5 0.00 0.00 0.00 49 1009.5
20260502163518 57 0 0.0 3.5 0.00 0.00 0.00 49 1009.5
20260502163509 57 0 0.0 3.5 0.00 0.00 0.00 48 1009.5
20260502163303 56 0 0.0 3.5 0.00 0.00 0.00 50 1009.6
20260502163202 56 0 0.0 7.8 0.00 0.00 0.00 46 1009.5
20260502163102 56 0 0.0 7.8 0.00 0.00 0.00 46 1009.6
20260502163021 56 360 0.0 7.0 0.00 0.00 0.00 47 1009.6
20260502163001 56 0 0.0 7.8 0.00 0.00 0.00 47 1009.6
20260502162921 56 0 0.0 7.8 0.00 0.00 0.00 46 1009.6
20260502162901 56 0 0.0 7.8 0.00 0.00 0.00 45 1009.7
20260502162812 56 0 0.0 7.8 0.00 0.00 0.00 45 1009.7
20260502162808 56 0 0.0 7.8 0.00 0.00 0.00 45 1009.6
20260502162556 56 0 0.0 7.8 0.00 0.00 0.00 45 1009.7
20260502162521 56 360 0.0 7.0 0.00 0.00 0.00 45 1009.7
20260502162455 56 0 0.0 7.8 0.00 0.00 0.00 45 1009.7
20260502162419 56 0 0.0 7.8 0.00 0.00 0.00 45 1009.7
20260502162407 56 0 0.0 7.8 0.00 0.00 0.00 46 1009.8
20260502162403 56 0 0.0 7.8 0.00 0.00 0.00 46 1009.7
20260502162154 56 0 0.0 7.0 0.00 0.00 0.00 45 1009.8
20260502162053 56 0 0.0 7.0 0.00 0.00 0.00 46 1009.7
20260502162021 57 360 0.0 7.0 0.00 0.00 0.00 45 1009.7
20260502161953 56 0 0.0 3.5 0.00 0.00 0.00 45 1009.7
20260502161917 56 0 0.0 3.5 0.00 0.00 0.00 47 1009.7
20260502161852 56 0 0.0 3.5 0.00 0.00 0.00 47 1009.7
20260502161752 56 0 0.0 3.5 0.00 0.00 0.00 47 1009.7
20260502161651 56 0 0.0 3.5 0.00 0.00 0.00 47 1009.7
20260502161641 56 0 0.0 3.5 0.00 0.00 0.00 45 1009.7
20260502161551 56 0 0.0 3.5 0.00 0.00 0.00 49 1009.8
20260502161524 56 0 0.0 3.5 0.00 0.00 0.00 49 1009.7
20260502161521 56 360 0.0 3.5 0.00 0.00 0.00 49 1009.7
20260502161350 56 0 0.0 3.5 0.00 0.00 0.00 45 1009.8
20260502161250 56 0 0.0 3.5 0.00 0.00 0.00 46 1009.8
20260502161150 56 0 0.0 3.5 0.00 0.00 0.00 47 1009.8
20260502161048 56 0 0.0 3.5 0.00 0.00 0.00 48 1009.8
20260502161021 56 360 0.0 3.5 0.00 0.00 0.00 49 1009.8
20260502160948 56 0 0.0 3.5 0.00 0.00 0.00 49 1009.8
20260502160917 56 0 0.0 3.5 0.00 0.00 0.00 49 1009.8
20260502160909 56 0 0.0 3.5 0.00 0.00 0.00 49 1009.8
20260502160755 56 0 0.0 3.5 0.00 0.00 0.00 47 1009.9
20260502160636 56 0 0.0 3.5 0.00 0.00 0.00 48 1010.1
20260502160546 56 0 0.0 3.5 0.00 0.00 0.00 50 1010.1
20260502160523 56 0 0.0 3.5 0.00 0.00 0.00 48 1010.1
20260502160521 56 360 0.0 3.5 0.00 0.00 0.00 50 1010.1
20260502160345 56 0 0.0 0.9 0.00 0.00 0.00 47 1010.0
20260502160242 56 0 0.0 0.9 0.00 0.00 0.00 46 1010.0
20260502160143 57 0 0.0 0.9 0.00 0.00 0.00 46 1009.9
20260502152320 53 0 0.0 5.2 0.00 0.00 0.00 55 1009.1
20260502152219 53 0 0.0 5.2 0.00 0.00 0.00 56 1009.3
20260502152141 53 0 0.0 5.2 0.00 0.00 0.00 56 1009.5
20260502152119 53 0 0.0 5.2 0.00 0.00 0.00 56 1009.3
20260502152029 53 0 0.0 5.2 0.00 0.00 0.00 55 1009.7
20260502152021 53 360 0.0 5.2 0.00 0.00 0.00 55 1009.5
20260502151817 53 0 0.0 0.0 0.00 0.00 0.00 57 1009.5
20260502151730 53 0 0.0 0.0 0.00 0.00 0.00 55 1009.4
20260502151726 53 0 0.0 0.0 0.00 0.00 0.00 56 1009.8
20260502151521 53 360 0.0 0.0 0.00 0.00 0.00 55 1008.8
20260502151516 53 0 0.0 0.0 0.00 0.00 0.00 55 1008.7
20260502151419 53 0 0.0 0.0 0.00 0.00 0.00 56 1008.9
20260502151412 53 0 0.0 0.0 0.00 0.00 0.00 56 1008.9
20260502151316 53 0 0.0 0.0 0.00 0.00 0.00 58 1009.2
20260502151215 53 0 0.0 0.0 0.00 0.00 0.00 56 1009.1
20260502151114 53 0 0.0 0.0 0.00 0.00 0.00 56 1008.5
20260502151034 52 0 0.0 4.3 0.00 0.00 0.00 56 1008.9
20260502151029 52 0 0.0 0.0 0.00 0.00 0.00 56 1008.7
20260502151021 52 360 0.0 0.0 0.00 0.00 0.00 56 1008.9
20260502151016 52 0 0.0 0.0 0.00 0.00 0.00 55 1009.0
20260502150859 52 0 0.0 4.3 0.00 0.00 0.00 57 1009.2
20260502150853 52 0 0.0 4.3 0.00 0.00 0.00 55 1009.0
20260502150735 52 0 0.0 4.3 0.00 0.00 0.00 56 1009.2
20260502150521 52 360 0.0 4.3 0.00 0.00 0.00 57 1009.3
20260502150310 52 0 0.0 4.3 0.00 0.00 0.00 55 1009.1
20260502150210 52 0 0.0 4.3 0.00 0.00 0.00 55 1009.3
20260502150150 52 0 0.0 4.3 0.00 0.00 0.00 57 1009.2
20260502150145 52 0 0.0 4.3 0.00 0.00 0.00 55 1009.2
20260502130712 50 0 0.0 3.5 0.00 0.00 0.00 71 1010.1
20260502130612 50 0 0.0 3.5 0.00 0.00 0.00 72 1010.1
20260502130521 50 360 0.0 3.5 0.00 0.00 0.00 73 1010.1
20260502130512 50 0 0.0 3.5 0.00 0.00 0.00 73 1010.1
20260502130412 50 0 0.0 1.7 0.00 0.00 0.00 73 1010.3
20260502130351 50 0 0.0 1.7 0.00 0.00 0.00 73 1010.3
20260502130311 50 0 0.0 1.7 0.00 0.00 0.00 73 1010.3
20260502130211 50 0 0.0 1.7 0.00 0.00 0.00 72 1010.2
20260502130122 50 0 0.0 0.9 0.00 0.00 0.00 71 1010.2
20260502130118 50 0 0.0 0.9 0.00 0.00 0.00 72 1010.2
20260502123700 50 0 0.0 0.0 0.00 0.00 0.00 78 1009.7
20260502123611 50 0 0.0 0.0 0.00 0.00 0.00 77 1010.0
20260502123607 50 0 0.0 0.0 0.00 0.00 0.00 78 1009.7
20260502123521 50 360 0.0 0.0 0.00 0.00 0.00 77 1010.0
20260502123343 50 0 0.0 0.0 0.00 0.00 0.00 78 1010.1
20260502123257 50 0 0.0 0.0 0.00 0.00 0.00 78 1009.9
20260502123157 50 0 0.0 0.9 0.00 0.00 0.00 77 1010.2
20260502123109 50 0 0.0 0.9 0.00 0.00 0.00 77 1010.2
20260502123105 50 0 0.0 0.9 0.00 0.00 0.00 77 1010.2
20260502123022 50 360 0.0 0.9 0.00 0.00 0.00 77 1010.2
20260502122843 50 0 0.0 0.9 0.00 0.00 0.00 77 1010.3
20260502122755 50 0 0.0 0.9 0.00 0.00 0.00 77 1010.3
20260502122713 50 0 0.0 0.9 0.00 0.00 0.00 78 1010.1
20260502122600 50 0 0.0 0.9 0.00 0.00 0.00 78 1010.2
20260502122521 50 360 0.0 0.9 0.00 0.00 0.00 78 1010.0
20260502122351 50 0 0.0 0.9 0.00 0.00 0.00 79 1009.9
20260502122342 50 0 0.0 2.6 0.00 0.00 0.00 79 1009.9
20260502122249 50 0 0.0 3.5 0.00 0.00 0.00 80 1009.7
20260502122148 50 0 0.0 3.5 0.00 0.00 0.00 80 1009.8
20260502122107 50 0 0.0 3.5 0.00 0.00 0.00 80 1009.5
20260502122048 50 0 0.0 3.5 0.00 0.00 0.00 81 1010.1
20260502122021 50 360 0.0 3.5 0.00 0.00 0.00 81 1009.5
20260502121958 50 0 0.0 3.5 0.00 0.00 0.00 81 1009.5
20260502121948 50 0 0.0 3.5 0.00 0.00 0.00 80 1009.5
20260502121759 49 0 0.0 7.0 0.00 0.00 0.00 80 1010.3
20260502121754 50 0 0.0 7.0 0.00 0.00 0.00 80 1010.3
20260502121627 49 0 0.0 7.0 0.00 0.00 0.00 80 1010.3
20260502121621 49 0 0.0 7.0 0.00 0.00 0.00 80 1010.2
20260502121521 50 360 0.0 7.0 0.00 0.00 0.00 80 1010.3
20260502121508 49 0 0.0 7.0 0.00 0.00 0.00 80 1010.3
20260502121459 50 0 0.0 7.0 0.00 0.00 0.00 80 1010.3
20260502121143 49 0 0.0 7.0 0.00 0.00 0.00 80 1010.3
20260502121108 50 0 0.9 7.8 0.00 0.00 0.00 81 1010.4
20260502121042 50 0 0.0 7.0 0.00 0.00 0.00 80 1010.4
20260502121021 50 360 0.0 7.0 0.00 0.00 0.00 80 1010.4
20260502120956 50 0 0.9 7.0 0.00 0.00 0.00 80 1010.4
20260502120947 50 0 0.9 7.8 0.00 0.00 0.00 81 1010.4
20260502120741 50 0 0.9 7.8 0.00 0.00 0.00 81 1010.3
20260502120640 50 0 0.9 7.8 0.00 0.00 0.00 81 1010.2
20260502120539 50 0 0.9 7.8 0.00 0.00 0.00 81 1010.2
20260502120521 50 360 0.0 5.2 0.00 0.00 0.00 81 1010.2
20260502120440 50 0 0.9 7.8 0.00 0.00 0.00 81 1010.2
20260502120339 50 0 0.9 7.8 0.00 0.00 0.00 81 1010.1
20260502120239 50 0 0.9 7.8 0.00 0.00 0.00 81 1010.1
20260502120139 50 0 0.0 7.8 0.00 0.00 0.00 82 1010.1
20260502115837 50 0 0.0 0.9 0.00 0.00 0.00 83 1009.9
20260502115737 50 0 0.0 0.9 0.00 0.00 0.00 83 1010.0
20260502115635 50 0 0.0 2.6 0.00 0.00 0.00 83 1010.1
20260502115536 50 360 0.0 9.6 0.00 0.00 0.00 83 1010.4
20260502115435 50 0 0.0 9.6 0.00 0.00 0.00 83 1010.3
20260502115353 50 0 0.0 9.6 0.00 0.00 0.00 83 1010.2
20260502115343 50 0 0.0 9.6 0.00 0.00 0.00 83 1010.2
20260502115146 50 0 0.0 9.6 0.00 0.00 0.00 83 1010.2
20260502115142 50 0 0.0 9.6 0.00 0.00 0.00 83 1010.1
20260502115021 50 360 0.0 9.6 0.00 0.00 0.00 83 1010.3
20260502114933 50 0 0.9 9.6 0.00 0.00 0.00 83 1010.2
20260502114832 50 0 0.9 9.6 0.00 0.00 0.00 83 1010.2
20260502114732 50 0 0.9 9.6 0.00 0.00 0.00 83 1010.1
20260502114644 50 0 0.0 2.6 0.00 0.00 0.00 84 1010.0
20260502114640 50 0 0.0 9.6 0.00 0.00 0.00 83 1010.1
20260502114536 50 360 0.0 2.6 0.00 0.00 0.00 84 1010.1
20260502114428 50 0 0.0 2.6 0.00 0.00 0.00 84 1010.0
20260502114327 50 0 0.0 2.6 0.00 0.00 0.00 85 1010.0
20260502114240 50 0 0.0 4.3 0.00 0.00 0.00 85 1010.1
20260502114235 50 0 0.0 2.6 0.00 0.00 0.00 85 1010.1
20260502114036 50 360 0.0 4.3 0.00 0.00 0.00 85 1010.2
20260502114026 50 0 0.0 4.3 0.00 0.00 0.00 85 1010.1
20260502113925 50 0 0.0 4.3 0.00 0.00 0.00 85 1010.1
20260502113825 50 0 0.0 4.3 0.00 0.00 0.00 85 1010.1
20260502113725 50 0 0.0 4.3 0.00 0.00 0.00 85 1010.1
20260502113625 50 0 0.0 4.3 0.00 0.00 0.00 85 1010.1
20260502113523 50 0 0.0 4.3 0.00 0.00 0.00 85 1010.1
20260502113521 50 360 0.0 4.3 0.00 0.00 0.00 85 1010.2
20260502113423 50 0 0.0 4.3 0.00 0.00 0.00 85 1010.1
20260502113322 50 0 0.0 4.3 0.00 0.00 0.00 85 1010.1
20260502113222 50 0 0.0 4.3 0.00 0.00 0.00 85 1010.1
20260502113122 50 0 0.0 0.9 0.00 0.00 0.00 85 1010.0
20260502113022 50 0 0.0 0.9 0.00 0.00 0.00 85 1010.0
20260502112921 50 0 0.0 0.9 0.00 0.00 0.00 85 1009.9
20260502112820 50 0 0.0 0.0 0.00 0.00 0.00 85 1009.9
20260502112720 50 0 0.0 0.0 0.00 0.00 0.00 85 1009.9
20260502112619 50 0 0.0 0.0 0.00 0.00 0.00 85 1009.9
20260502112521 50 360 0.0 0.0 0.00 0.00 0.00 85 1010.0
20260502112518 50 0 0.0 0.0 0.00 0.00 0.00 85 1010.0
20260502112418 50 0 0.0 0.0 0.00 0.00 0.00 86 1009.9
20260502112317 50 0 0.0 2.6 0.00 0.00 0.00 86 1009.8
20260502112217 50 0 0.0 2.6 0.00 0.00 0.00 86 1009.8
20260502112117 50 0 0.0 2.6 0.00 0.00 0.00 86 1009.9
20260502112029 49 259 0.0 2.6 0.00 0.00 0.00 86 1009.8
20260502112025 50 344 0.0 2.6 0.00 0.00 0.00 86 1009.8
20260502112021 50 360 0.0 2.6 0.00 0.00 0.00 86 1009.9
20260502111833 49 259 0.0 2.6 0.00 0.00 0.00 86 1009.8
20260502111815 49 259 0.0 2.6 0.00 0.00 0.00 86 1009.8
20260502111715 49 290 0.0 3.5 0.00 0.00 0.00 86 1009.8
20260502111613 49 275 0.0 6.1 0.00 0.00 0.00 86 1009.8
20260502111527 49 242 0.0 6.1 0.00 0.00 0.00 86 1009.8
20260502111523 49 192 0.0 6.1 0.00 0.00 0.00 86 1009.8
20260502111521 49 184 0.0 6.1 0.00 0.00 0.00 86 1009.9
20260502111331 49 0 0.0 6.1 0.00 0.00 0.00 86 1009.7
20260502111326 49 0 0.0 6.1 0.00 0.00 0.00 86 1009.7
20260502111322 49 263 0.0 6.1 0.00 0.00 0.00 86 1009.7
20260502111125 49 241 0.0 6.1 0.00 0.00 0.00 86 1009.8
20260502111121 49 250 0.0 6.1 0.00 0.00 0.00 86 1009.8
20260502111021 49 241 0.0 6.1 0.00 0.00 0.00 86 1009.9
20260502110911 49 277 0.0 6.1 0.00 0.00 0.00 86 1009.8
20260502110832 49 0 0.0 6.1 0.00 0.00 0.00 86 1009.8
20260502110810 49 0 0.0 6.1 0.00 0.00 0.00 86 1009.8
20260502110709 49 229 0.0 6.1 0.00 0.00 0.00 86 1009.7
20260502110609 49 244 0.0 0.9 0.00 0.00 0.00 86 1009.7
20260502110536 49 242 0.0 0.0 0.00 0.00 0.00 86 1009.8
20260502110510 49 0 0.0 0.0 0.00 0.00 0.00 86 1009.7
20260502110428 49 244 0.0 0.0 0.00 0.00 0.00 86 1009.6
20260502110424 49 244 0.0 0.0 0.00 0.00 0.00 86 1009.7
20260502110416 49 244 0.0 0.0 0.00 0.00 0.00 86 1009.7
20260502110206 49 265 0.0 0.0 0.00 0.00 0.00 86 1009.7
20260502110106 49 266 0.0 0.0 0.00 0.00 0.00 86 1009.7
20260502110021 49 266 0.0 0.0 0.00 0.00 0.00 86 1009.8
20260502110007 49 266 0.0 0.0 0.00 0.00 0.00 86 1009.7
20260502105907 49 253 0.0 0.0 0.00 0.00 0.00 86 1009.7
20260502105832 49 253 0.0 0.0 0.00 0.00 0.00 86 1009.7
20260502105806 49 254 0.0 0.0 0.00 0.00 0.00 86 1009.6
20260502105727 49 254 0.0 0.0 0.00 0.00 0.00 86 1009.6
20260502105614 49 253 0.0 0.0 0.00 0.00 0.00 86 1009.6
20260502105521 49 261 0.0 0.0 0.00 0.00 0.00 86 1009.7
20260502105404 49 262 0.0 0.0 0.00 0.00 0.00 86 1009.6
20260502105330 49 262 0.0 0.0 0.00 0.00 0.00 86 1009.6
20260502105317 49 290 0.0 2.6 0.00 0.00 0.00 86 1009.6
20260502105313 49 262 0.0 2.6 0.00 0.00 0.00 86 1009.6
20260502105103 49 253 0.0 2.6 0.00 0.00 0.00 86 1009.5
20260502105036 49 273 0.0 2.6 0.00 0.00 0.00 86 1009.7
20260502105003 49 272 0.0 2.6 0.00 0.00 0.00 86 1009.6
20260502104901 49 0 0.0 2.6 0.00 0.00 0.00 86 1009.6
20260502104829 49 257 0.0 2.6 0.00 0.00 0.00 86 1009.6
20260502104800 49 257 0.0 3.5 0.00 0.00 0.00 87 1009.6
20260502104733 49 252 0.0 3.5 0.00 0.00 0.00 87 1009.6
20260502104621 49 0 0.0 3.5 0.00 0.00 0.00 87 1009.5
20260502104616 49 244 0.0 3.5 0.00 0.00 0.00 87 1009.6
20260502104521 49 194 0.0 3.5 0.00 0.00 0.00 87 1009.6
20260502104332 48 243 0.0 3.5 0.00 0.00 0.00 87 1009.5
20260502104328 49 261 0.0 3.5 0.00 0.00 0.00 87 1009.5
20260502104323 48 0 0.0 3.5 0.00 0.00 0.00 87 1009.5
20260502104317 48 250 0.0 3.5 0.00 0.00 0.00 87 1009.5
20260502104204 48 0 0.0 3.5 0.00 0.00 0.00 87 1009.5
20260502104155 48 246 0.0 3.5 0.00 0.00 0.00 87 1009.5
20260502104022 48 360 0.0 3.5 0.00 0.00 0.00 87 1009.6
20260502103753 48 271 0.0 0.9 0.00 0.00 0.00 88 1009.5
20260502103653 48 0 0.0 3.5 0.00 0.00 0.00 88 1009.5
20260502103552 48 0 0.0 3.5 0.00 0.00 0.00 88 1009.5
20260502103521 48 275 0.0 1.7 0.00 0.00 0.00 88 1009.6
20260502103452 48 275 0.0 3.5 0.00 0.00 0.00 88 1009.5
20260502103350 48 0 0.0 3.5 0.00 0.00 0.00 88 1009.5
20260502103328 48 280 0.0 3.5 0.00 0.00 0.00 88 1009.5
20260502103303 48 0 0.0 3.5 0.00 0.00 0.00 88 1009.5
20260502103258 48 280 0.0 3.5 0.00 0.00 0.00 88 1009.5
20260502103049 48 280 0.0 3.5 0.00 0.00 0.00 88 1009.5
20260502103021 48 360 0.0 1.7 0.00 0.00 0.00 88 1009.6
20260502102949 48 284 0.0 3.5 0.00 0.00 0.00 88 1009.5
20260502102847 48 262 0.0 3.5 0.00 0.00 0.00 88 1009.5
20260502102829 48 0 0.0 3.5 0.00 0.00 0.00 88 1009.5
20260502102822 48 262 0.0 3.5 0.00 0.00 0.00 88 1009.5
20260502102709 48 242 0.0 0.0 0.00 0.00 0.00 89 1009.5
20260502102555 48 243 0.0 1.7 0.00 0.00 0.00 89 1009.5
20260502102521 48 244 0.0 1.7 0.00 0.00 0.00 89 1009.6
20260502102434 48 244 0.0 1.7 0.00 0.00 0.00 89 1009.5
20260502102317 48 244 0.0 1.7 0.00 0.00 0.00 89 1009.5
20260502102312 48 244 0.0 1.7 0.00 0.00 0.00 89 1009.5
20260502102044 48 244 0.0 1.7 0.00 0.00 0.00 90 1009.5
20260502102037 48 244 0.0 1.7 0.00 0.00 0.00 90 1009.6
20260502101954 47 245 0.0 1.7 0.00 0.00 0.00 90 1009.5
20260502101950 48 0 0.0 1.7 0.00 0.00 0.00 90 1009.5
20260502101803 47 0 0.0 1.7 0.00 0.00 0.00 90 1009.5
20260502101650 47 244 0.0 1.7 0.00 0.00 0.00 90 1009.4
20260502101521 47 248 0.0 0.9 0.00 0.00 0.00 90 1009.6
20260502101441 47 248 0.0 0.0 0.00 0.00 0.00 90 1009.5
20260502101359 47 248 0.0 0.0 0.00 0.00 0.00 90 1009.5
20260502101353 47 248 0.0 0.0 0.00 0.00 0.00 90 1009.5
20260502101347 47 248 0.0 0.0 0.00 0.00 0.00 90 1009.5
20260502101151 47 290 0.0 0.0 0.00 0.00 0.00 90 1009.5
20260502101147 47 0 0.0 0.0 0.00 0.00 0.00 90 1009.5
20260502101021 47 360 0.0 0.0 0.00 0.00 0.00 90 1009.6
20260502100937 47 0 0.0 0.0 0.00 0.00 0.00 90 1009.5
20260502100837 47 0 0.0 0.0 0.00 0.00 0.00 90 1009.5
20260502100825 47 232 0.0 0.0 0.00 0.00 0.00 90 1009.5
20260502100749 47 261 0.0 0.0 0.00 0.00 0.00 90 1009.6
20260502100745 47 0 0.0 0.0 0.00 0.00 0.00 90 1009.5
20260502100534 47 263 0.0 0.0 0.00 0.00 0.00 90 1009.5
20260502100521 47 360 0.0 0.0 0.00 0.00 0.00 90 1009.6
20260502100446 47 236 0.0 0.0 0.00 0.00 0.00 90 1009.5
20260502100442 47 262 0.0 0.0 0.00 0.00 0.00 90 1009.5
20260502100325 47 236 0.0 0.0 0.00 0.00 0.00 90 1009.5
20260502100232 47 236 0.0 0.0 0.00 0.00 0.00 90 1009.5
20260502100132 47 0 0.0 0.0 0.00 0.00 0.00 90 1009.4
20260502100111 47 261 0.0 0.0 0.00 0.00 0.00 89 1009.4
20260502100106 47 236 0.0 0.0 0.00 0.00 0.00 89 1009.4
20260502091522 49 261 0.0 0.0 0.00 0.00 0.00 86 1009.5
20260502091505 49 261 0.0 0.0 0.00 0.00 0.00 86 1009.4
20260502091404 49 261 0.0 0.0 0.00 0.00 0.00 86 1009.3
20260502091303 49 261 0.0 0.0 0.00 0.00 0.00 86 1009.3
20260502091229 49 261 0.0 0.0 0.00 0.00 0.00 86 1009.2
20260502091116 49 261 0.0 0.0 0.00 0.00 0.00 86 1009.2
20260502091111 49 0 0.0 0.0 0.00 0.00 0.00 86 1009.2
20260502091021 49 261 0.0 0.0 0.00 0.00 0.00 86 1009.2
20260502090922 49 261 0.0 0.0 0.00 0.00 0.00 86 1009.2
20260502090800 49 0 0.0 0.0 0.00 0.00 0.00 86 1009.1
20260502090700 49 261 0.0 0.0 0.00 0.00 0.00 86 1009.1
20260502090558 49 261 0.0 0.0 0.00 0.00 0.00 86 1009.2
20260502090541 49 261 0.0 0.0 0.00 0.00 0.00 86 1009.2
20260502090537 49 261 0.0 0.0 0.00 0.00 0.00 86 1009.2
20260502090530 49 261 0.0 0.0 0.00 0.00 0.00 86 1009.2
20260502090521 49 261 0.0 0.0 0.00 0.00 0.00 86 1009.3
20260502090306 49 261 0.0 0.0 0.00 0.00 0.00 86 1009.2
20260502071522 50 261 0.0 0.0 0.00 0.00 0.00 84 1009.5
20260502071357 50 261 0.0 0.0 0.00 0.00 0.00 84 1009.5
20260502071255 50 261 0.0 0.0 0.00 0.00 0.00 84 1009.5
20260502071155 50 261 0.0 0.0 0.00 0.00 0.00 84 1009.5
20260502071053 50 261 0.0 0.0 0.00 0.00 0.00 84 1009.5
20260502071021 50 261 0.0 0.0 0.00 0.00 0.00 84 1009.6
20260502070953 50 261 0.0 0.0 0.00 0.00 0.00 84 1009.5
20260502070853 50 261 0.0 0.0 0.00 0.00 0.00 84 1009.6
20260502070810 50 261 0.0 0.0 0.00 0.00 0.00 84 1009.6
20260502070801 50 261 0.0 0.0 0.00 0.00 0.00 84 1009.6
20260502070551 50 261 0.0 0.0 0.00 0.00 0.00 85 1009.6
20260502070522 50 261 0.0 0.0 0.00 0.00 0.00 85 1009.7
20260502070448 50 261 0.0 0.0 0.00 0.00 0.00 85 1009.6
20260502070408 50 261 0.0 0.0 0.00 0.00 0.00 85 1009.6
20260502070402 50 261 0.0 0.0 0.00 0.00 0.00 85 1009.6
20260502070354 50 260 0.0 0.0 0.00 0.00 0.00 85 1009.6
20260502070148 50 261 0.0 0.0 0.00 0.00 0.00 85 1009.7
20260502070059 50 261 0.0 0.0 0.00 0.00 0.00 86 1009.6
20260502070055 50 261 0.0 0.0 0.00 0.00 0.00 86 1009.6
20260502070022 50 261 0.0 0.0 0.00 0.00 0.00 86 1009.7
20260502065845 50 261 0.0 0.0 0.00 0.00 0.00 86 1009.6
20260502065754 50 261 0.0 0.0 0.00 0.00 0.00 86 1009.6
20260502065745 50 0 0.0 0.0 0.00 0.00 0.00 86 1009.6
20260502065644 50 261 0.0 0.0 0.00 0.00 0.00 86 1009.5
20260502065544 50 261 0.0 0.0 0.00 0.00 0.00 86 1009.5
20260502065522 50 360 0.0 0.0 0.00 0.00 0.00 86 1009.6
20260502065441 50 261 0.0 1.7 0.00 0.00 0.00 86 1009.5
20260502065355 50 261 0.0 1.7 0.00 0.00 0.00 86 1009.6
20260502065346 50 261 0.0 1.7 0.00 0.00 0.00 86 1009.6
20260502065141 50 261 0.0 1.7 0.00 0.00 0.00 87 1009.5
20260502065041 50 261 0.0 1.7 0.00 0.00 0.00 87 1009.5
20260502065037 50 261 0.0 1.7 0.00 0.00 0.00 87 1009.6
20260502064939 50 262 0.0 1.7 0.00 0.00 0.00 87 1009.5
20260502064839 50 261 0.0 1.7 0.00 0.00 0.00 87 1009.6
20260502064757 50 261 0.0 1.7 0.00 0.00 0.00 87 1009.5
20260502064752 50 261 0.0 1.7 0.00 0.00 0.00 87 1009.5
20260502064747 50 0 0.0 1.7 0.00 0.00 0.00 87 1009.5
20260502064550 50 259 0.0 0.0 0.00 0.00 0.00 87 1009.5
20260502064546 50 261 0.0 1.7 0.00 0.00 0.00 87 1009.4
20260502064523 50 360 0.0 1.7 0.00 0.00 0.00 87 1009.6
20260502064336 50 261 0.0 0.0 0.00 0.00 0.00 87 1009.5
20260502064235 50 260 0.0 0.0 0.00 0.00 0.00 87 1009.5
20260502064135 50 0 0.0 0.0 0.00 0.00 0.00 87 1009.4
20260502064035 50 249 0.0 0.0 0.00 0.00 0.00 87 1009.4
20260502064022 50 250 0.0 0.0 0.00 0.00 0.00 87 1009.5
20260502063934 50 250 0.0 0.0 0.00 0.00 0.00 87 1009.4
20260502063834 50 183 0.0 0.0 0.00 0.00 0.00 87 1009.4
20260502063755 50 183 0.0 0.0 0.00 0.00 0.00 87 1009.4
20260502063641 50 183 0.0 0.0 0.00 0.00 0.00 87 1009.4
20260502063537 50 182 0.0 0.0 0.00 0.00 0.00 87 1009.5
20260502063459 50 182 0.0 0.0 0.00 0.00 0.00 86 1009.4
20260502063345 50 182 0.0 0.0 0.00 0.00 0.00 86 1009.5
20260502063336 50 182 0.0 0.0 0.00 0.00 0.00 86 1009.5
20260502063131 50 182 0.0 0.0 0.00 0.00 0.00 86 1009.5
20260502063031 50 182 0.0 0.0 0.00 0.00 0.00 86 1009.4
20260502063022 50 182 0.0 0.0 0.00 0.00 0.00 86 1009.5
20260502063017 50 182 0.0 0.0 0.00 0.00 0.00 85 1009.5
20260502063011 50 182 0.0 0.0 0.00 0.00 0.00 85 1009.5
20260502063006 50 182 0.0 0.0 0.00 0.00 0.00 86 1009.4
20260502062730 50 0 0.0 0.0 0.00 0.00 0.00 85 1009.5
20260502062627 50 182 0.0 0.0 0.00 0.00 0.00 85 1009.5
20260502062527 50 182 0.0 0.0 0.00 0.00 0.00 85 1009.5
20260502062523 50 182 0.0 0.0 0.00 0.00 0.00 85 1009.6
20260502062452 50 182 0.0 0.0 0.00 0.00 0.00 85 1009.5
20260502062339 50 182 0.0 0.0 0.00 0.00 0.00 85 1009.5
20260502062330 50 182 0.0 0.0 0.00 0.00 0.00 85 1009.5
20260502062136 50 182 0.0 0.0 0.00 0.00 0.00 85 1009.5
20260502062132 50 182 0.0 0.0 0.00 0.00 0.00 85 1009.5
20260502062022 50 182 0.0 0.0 0.00 0.00 0.00 85 1009.5
20260502061923 50 182 0.0 0.0 0.00 0.00 0.00 85 1009.4
20260502061823 50 182 0.0 0.0 0.00 0.00 0.00 85 1009.4
20260502061745 50 182 0.0 0.0 0.00 0.00 0.00 85 1009.4
20260502061723 50 182 0.0 0.0 0.00 0.00 0.00 84 1009.4
20260502061622 50 182 0.0 0.0 0.00 0.00 0.00 84 1009.4
20260502061552 50 182 0.0 0.0 0.00 0.00 0.00 84 1009.4
20260502061522 50 182 0.0 0.0 0.00 0.00 0.00 84 1009.5
20260502061452 50 182 0.0 0.0 0.00 0.00 0.00 84 1009.4
20260502061320 50 274 0.0 0.0 0.00 0.00 0.00 84 1009.4
20260502061219 50 274 0.0 0.0 0.00 0.00 0.00 84 1009.4
20260502061119 50 274 0.0 0.0 0.00 0.00 0.00 84 1009.4
20260502061022 50 274 0.0 0.0 0.00 0.00 0.00 84 1009.5
20260502061018 50 274 0.0 0.0 0.00 0.00 0.00 84 1009.4
20260502060917 50 274 0.0 0.0 0.00 0.00 0.00 84 1009.4
20260502060817 50 274 0.0 0.0 0.00 0.00 0.00 84 1009.4
20260502060745 50 274 0.0 0.0 0.00 0.00 0.00 84 1009.4
20260502060716 51 274 0.0 0.0 0.00 0.00 0.00 84 1009.4
20260502060616 51 274 0.0 0.0 0.00 0.00 0.00 84 1009.3
20260502060541 51 274 0.0 0.0 0.00 0.00 0.00 84 1009.3
20260502060537 51 274 0.0 0.0 0.00 0.00 0.00 85 1009.3
20260502060533 51 274 0.0 0.0 0.00 0.00 0.00 84 1009.3
20260502060521 51 274 0.0 0.0 0.00 0.00 0.00 84 1009.5
20260502060215 51 274 0.0 0.0 0.00 0.00 0.00 85 1009.3
20260502060115 51 274 0.0 0.0 0.00 0.00 0.00 85 1009.2
20260502060021 51 274 0.0 0.0 0.00 0.00 0.00 84 1009.5
20260502060014 51 274 0.0 0.0 0.00 0.00 0.00 84 1009.3
20260502055942 51 274 0.0 0.0 0.00 0.00 0.00 84 1009.3
20260502055829 51 274 0.0 0.0 0.00 0.00 0.00 84 1009.3
20260502055821 51 274 0.0 0.0 0.00 0.00 0.00 84 1009.3
20260502055614 51 274 0.0 0.0 0.00 0.00 0.00 84 1009.4
20260502055552 51 274 0.0 0.0 0.00 0.00 0.00 84 1009.5
20260502055524 51 274 0.0 0.0 0.00 0.00 0.00 84 1009.5
20260502055520 51 274 0.0 0.0 0.00 0.00 0.00 84 1009.4
20260502055310 51 274 0.0 0.0 0.00 0.00 0.00 84 1009.5
20260502055222 51 274 0.0 0.0 0.00 0.00 0.00 84 1009.5
20260502055218 51 274 0.0 0.0 0.00 0.00 0.00 84 1009.5
20260502055021 51 274 0.0 0.0 0.00 0.00 0.00 84 1009.6
20260502055008 51 274 0.0 0.0 0.00 0.00 0.00 84 1009.5
20260502054908 51 274 0.0 0.0 0.00 0.00 0.00 83 1009.5
20260502054807 51 274 0.0 0.0 0.00 0.00 0.00 83 1009.5
20260502054741 51 274 0.0 0.0 0.00 0.00 0.00 83 1009.5
20260502054705 51 274 0.0 0.0 0.00 0.00 0.00 83 1009.5
20260502054605 51 274 0.0 0.0 0.00 0.00 0.00 83 1009.5
20260502054522 51 274 0.0 0.0 0.00 0.00 0.00 83 1009.6
20260502054506 51 274 0.0 0.0 0.00 0.00 0.00 83 1009.5
20260502054405 51 274 0.0 0.0 0.00 0.00 0.00 83 1009.5
20260502054322 51 274 0.0 0.0 0.00 0.00 0.00 82 1009.5
20260502054318 51 274 0.0 0.0 0.00 0.00 0.00 83 1009.5
20260502054310 51 274 0.0 0.0 0.00 0.00 0.00 83 1009.5
20260502054103 51 274 0.0 0.0 0.00 0.00 0.00 82 1009.5
20260502054022 51 274 0.0 0.0 0.00 0.00 0.00 82 1009.7
20260502054003 51 0 0.0 0.0 0.00 0.00 0.00 82 1009.6
20260502053915 51 274 0.0 0.0 0.00 0.00 0.00 81 1009.6
20260502053911 51 274 0.0 0.0 0.00 0.00 0.00 81 1009.6
20260502053739 51 0 0.0 0.0 0.00 0.00 0.00 81 1009.6
20260502053702 51 274 0.0 0.0 0.00 0.00 0.00 81 1009.7
20260502053601 51 274 0.0 0.0 0.00 0.00 0.00 81 1009.7
20260502053521 51 274 0.0 0.0 0.00 0.00 0.00 81 1009.8
20260502053504 51 274 0.0 0.0 0.00 0.00 0.00 81 1009.7
20260502053500 51 274 0.0 0.0 0.00 0.00 0.00 81 1009.7
20260502053400 51 273 0.0 0.0 0.00 0.00 0.00 81 1009.7
20260502053347 51 273 0.0 0.0 0.00 0.00 0.00 81 1009.7
20260502053158 51 274 0.0 0.0 0.00 0.00 0.00 81 1009.7
20260502053058 51 274 0.0 0.0 0.00 0.00 0.00 80 1009.7
20260502053023 51 274 0.0 0.0 0.00 0.00 0.00 80 1009.8
20260502052958 51 274 0.0 0.0 0.00 0.00 0.00 80 1009.7
20260502052858 51 274 0.0 0.0 0.00 0.00 0.00 80 1009.7
20260502052738 51 274 0.0 0.0 0.00 0.00 0.00 80 1009.7
20260502052656 51 274 0.0 0.0 0.00 0.00 0.00 80 1009.8
20260502052556 51 274 0.0 0.0 0.00 0.00 0.00 80 1009.7
20260502052522 52 274 0.0 0.0 0.00 0.00 0.00 80 1009.8
20260502052455 51 274 0.0 0.0 0.00 0.00 0.00 80 1009.7
20260502052352 52 274 0.0 0.0 0.00 0.00 0.00 80 1009.8
20260502052236 52 274 0.0 0.0 0.00 0.00 0.00 80 1009.7
20260502052152 52 274 0.0 0.0 0.00 0.00 0.00 80 1009.8
20260502052050 52 274 0.0 0.0 0.00 0.00 0.00 80 1009.8
20260502052022 52 273 0.0 0.0 0.00 0.00 0.00 80 1009.9
20260502051950 52 273 0.0 0.0 0.00 0.00 0.00 80 1009.8
20260502051850 52 274 0.0 0.0 0.00 0.00 0.00 79 1009.9
20260502051750 52 0 0.0 0.0 0.00 0.00 0.00 79 1009.9
20260502051736 52 273 0.0 0.0 0.00 0.00 0.00 79 1009.9
20260502051717 52 274 0.0 0.0 0.00 0.00 0.00 78 1009.9
20260502051713 52 274 0.0 0.0 0.00 0.00 0.00 78 1009.9
20260502051707 52 274 0.0 0.0 0.00 0.00 0.00 79 1009.9
20260502051521 52 274 0.0 0.0 0.00 0.00 0.00 78 1010.0
20260502051401 52 274 0.0 0.0 0.00 0.00 0.00 78 1009.8
20260502051356 52 0 0.0 0.0 0.00 0.00 0.00 78 1009.9
20260502051234 52 274 0.0 0.0 0.00 0.00 0.00 78 1009.8
20260502051147 52 273 0.0 0.0 0.00 0.00 0.00 78 1009.8
20260502051046 52 0 0.0 0.0 0.00 0.00 0.00 77 1009.7
20260502051022 52 274 0.0 0.0 0.00 0.00 0.00 77 1009.9
20260502051010 52 274 0.0 0.0 0.00 0.00 0.00 78 1009.7
20260502051004 52 274 0.0 0.0 0.00 0.00 0.00 78 1009.7
20260502051000 52 273 0.0 0.0 0.00 0.00 0.00 77 1009.8
20260502050842 52 274 0.0 0.0 0.00 0.00 0.00 78 1009.7
20260502050645 52 274 0.0 0.0 0.00 0.00 0.00 78 1009.6
20260502050544 52 274 0.0 0.0 0.00 0.00 0.00 78 1009.6
20260502050521 52 274 0.0 0.0 0.00 0.00 0.00 78 1009.8
20260502050444 52 273 0.0 0.0 0.00 0.00 0.00 78 1009.7
20260502050343 52 274 0.0 0.0 0.00 0.00 0.00 77 1009.7
20260502050232 52 275 0.0 0.0 0.00 0.00 0.00 77 1009.6
20260502050142 52 274 0.0 0.0 0.00 0.00 0.00 77 1009.6
20260502050041 52 275 0.0 0.0 0.00 0.00 0.00 77 1009.7
20260502050022 52 275 0.0 0.0 0.00 0.00 0.00 78 1009.7
20260502045940 52 274 0.0 0.0 0.00 0.00 0.00 77 1009.7
20260502045840 52 274 0.0 0.0 0.00 0.00 0.00 77 1009.7
20260502045732 52 275 0.0 0.0 0.00 0.00 0.00 77 1009.7
20260502045639 52 274 0.0 0.0 0.00 0.00 0.00 77 1009.7
20260502045552 52 275 0.0 0.0 0.00 0.00 0.00 77 1009.6
20260502045537 52 0 0.0 0.0 0.00 0.00 0.00 77 1009.6
20260502045436 52 275 0.0 0.0 0.00 0.00 0.00 77 1009.6
20260502045334 52 274 0.0 0.0 0.00 0.00 0.00 77 1009.6
20260502045230 52 274 0.0 0.0 0.00 0.00 0.00 76 1009.5
20260502045147 52 274 0.0 0.0 0.00 0.00 0.00 76 1009.6
20260502045143 52 274 0.0 0.0 0.00 0.00 0.00 76 1009.6
20260502045022 52 274 0.0 0.0 0.00 0.00 0.00 76 1009.7
20260502044933 53 275 0.0 0.0 0.00 0.00 0.00 76 1009.7
20260502044849 53 274 0.0 0.0 0.00 0.00 0.00 76 1009.7
20260502044844 53 274 0.0 0.0 0.00 0.00 0.00 76 1009.7
20260502044729 53 274 0.0 0.0 0.00 0.00 0.00 76 1009.7
20260502044632 53 274 0.0 0.0 0.00 0.00 0.00 75 1009.7
20260502044531 53 274 0.0 0.0 0.00 0.00 0.00 75 1009.7
20260502044522 53 274 0.0 0.0 0.00 0.00 0.00 75 1009.8
20260502044430 53 275 0.0 0.0 0.00 0.00 0.00 75 1009.8
20260502044330 53 275 0.0 0.0 0.00 0.00 0.00 75 1009.8
20260502044230 53 274 0.0 0.0 0.00 0.00 0.00 75 1009.7
20260502044130 53 274 0.0 0.0 0.00 0.00 0.00 76 1009.8
20260502044028 53 274 0.0 0.0 0.00 0.00 0.00 76 1009.7
20260502044021 53 274 0.0 0.0 0.00 0.00 0.00 76 1009.8
20260502043952 53 274 0.0 0.0 0.00 0.00 0.00 75 1009.9
20260502043928 53 274 0.0 0.0 0.00 0.00 0.00 76 1009.8
20260502043842 53 274 0.0 0.0 0.00 0.00 0.00 76 1009.8
20260502043727 53 275 0.0 0.0 0.00 0.00 0.00 75 1009.9
20260502043626 53 274 0.0 0.0 0.00 0.00 0.00 75 1009.8
20260502043552 53 275 0.0 0.0 0.00 0.00 0.00 74 1009.9
20260502043548 53 275 0.0 0.0 0.00 0.00 0.00 74 1009.8
20260502043543 53 274 0.0 0.0 0.00 0.00 0.00 74 1009.8
20260502043522 53 275 0.0 0.0 0.00 0.00 0.00 74 1009.9
20260502043224 53 275 0.0 0.0 0.00 0.00 0.00 74 1009.8
20260502043136 53 275 0.0 0.0 0.00 0.00 0.00 74 1009.8
20260502043132 53 275 0.0 0.0 0.00 0.00 0.00 74 1009.8
20260502043023 53 274 0.0 0.0 0.00 0.00 0.00 74 1009.7
20260502042922 53 274 0.0 0.0 0.00 0.00 0.00 73 1009.7
20260502042821 53 275 0.0 0.0 0.00 0.00 0.00 73 1009.6
20260502042721 53 275 0.0 0.0 0.00 0.00 0.00 73 1009.6
20260502042621 53 274 0.0 0.0 0.00 0.00 0.00 72 1009.6
20260502042605 53 274 0.0 0.0 0.00 0.00 0.00 72 1009.6
20260502042601 53 274 0.0 0.0 0.00 0.00 0.00 72 1009.6
20260502042557 53 274 0.0 0.0 0.00 0.00 0.00 72 1009.6
20260502042552 53 274 0.0 0.0 0.00 0.00 0.00 72 1009.6
20260502042522 53 274 0.0 0.0 0.00 0.00 0.00 72 1009.6
20260502042219 53 274 0.0 0.0 0.00 0.00 0.00 72 1009.6
20260502042118 53 0 0.0 0.0 0.00 0.00 0.00 71 1009.6
20260502042022 53 274 0.0 0.0 0.00 0.00 0.00 71 1009.6
20260502042017 53 275 0.0 0.0 0.00 0.00 0.00 71 1009.6
20260502041917 53 274 0.0 0.0 0.00 0.00 0.00 71 1009.6
20260502041857 53 275 0.0 0.0 0.00 0.00 0.00 71 1009.6
20260502041852 53 274 0.0 0.0 0.00 0.00 0.00 71 1009.6
20260502041733 53 274 0.0 0.0 0.00 0.00 0.00 71 1009.6
20260502041537 53 274 0.0 0.0 0.00 0.00 0.00 72 1009.5
20260502041413 53 274 0.0 0.0 0.00 0.00 0.00 72 1009.5
20260502041312 53 275 0.0 0.0 0.00 0.00 0.00 72 1009.6
20260502041244 53 274 0.0 0.0 0.00 0.00 0.00 71 1009.6
20260502041240 53 0 0.0 0.0 0.00 0.00 0.00 71 1009.6
20260502041229 53 275 0.0 0.0 0.00 0.00 0.00 71 1009.5
20260502041021 53 274 0.0 0.0 0.00 0.00 0.00 71 1009.6
20260502040911 53 274 0.0 0.0 0.00 0.00 0.00 71 1009.5
20260502040810 53 274 0.0 0.0 0.00 0.00 0.00 71 1009.5
20260502040710 53 274 0.0 0.0 0.00 0.00 0.00 70 1009.5
20260502040608 53 281 0.0 1.7 0.00 0.00 0.00 70 1009.4
20260502040537 53 281 0.0 1.7 0.00 0.00 0.00 70 1009.4
20260502040508 53 281 0.0 1.7 0.00 0.00 0.00 70 1009.4
20260502040408 53 281 0.0 1.7 0.00 0.00 0.00 71 1009.4
20260502040306 53 281 0.0 1.7 0.00 0.00 0.00 71 1009.4
20260502040206 53 281 0.0 1.7 0.00 0.00 0.00 71 1009.4
20260502040105 54 281 0.0 1.7 0.00 0.00 0.00 71 1009.4
20260502040022 54 281 0.0 1.7 0.00 0.00 0.00 71 1009.4
20260502040005 54 281 0.0 1.7 0.00 0.00 0.00 71 1009.4
20260502035904 54 281 0.0 1.7 0.00 0.00 0.00 71 1009.4
20260502035802 54 281 0.0 1.7 0.00 0.00 0.00 70 1009.4
20260502035719 54 281 0.0 1.7 0.00 0.00 0.00 70 1009.4
20260502035702 54 281 0.0 1.7 0.00 0.00 0.00 70 1009.4
20260502035602 54 158 0.0 0.0 0.00 0.00 0.00 70 1009.4
20260502035522 54 158 0.0 0.0 0.00 0.00 0.00 69 1009.4
20260502035501 54 158 0.0 0.0 0.00 0.00 0.00 69 1009.4
20260502035401 54 158 0.0 0.0 0.00 0.00 0.00 69 1009.3
20260502035258 54 158 0.0 0.0 0.00 0.00 0.00 69 1009.3
20260502035217 54 158 0.0 0.0 0.00 0.00 0.00 69 1009.3
20260502035159 54 158 0.0 0.0 0.00 0.00 0.00 69 1009.3
20260502035058 54 158 0.0 0.0 0.00 0.00 0.00 69 1009.3
20260502035022 54 158 0.0 0.0 0.00 0.00 0.00 69 1009.3
20260502034958 54 159 0.0 0.0 0.00 0.00 0.00 69 1009.3
20260502034911 54 158 0.0 0.0 0.00 0.00 0.00 68 1009.3
20260502034906 54 158 0.0 0.0 0.00 0.00 0.00 69 1009.3
20260502034716 54 157 0.0 0.9 0.00 0.00 0.00 68 1009.3
20260502034710 54 176 0.0 0.9 0.00 0.00 0.00 68 1009.1
20260502034705 54 157 0.0 0.9 0.00 0.00 0.00 68 1009.2
20260502034521 54 175 0.0 0.9 0.00 0.00 0.00 67 1009.1
20260502034456 54 175 0.0 0.9 0.00 0.00 0.00 67 1009.1
20260502034441 54 164 0.0 0.9 0.00 0.00 0.00 67 1009.1
20260502034354 54 175 0.0 0.9 0.00 0.00 0.00 67 1009.1
20260502034326 54 163 0.0 0.9 0.00 0.00 0.00 67 1009.1
20260502034206 54 163 0.0 0.9 0.00 0.00 0.00 67 1009.0
20260502034202 54 164 0.0 0.9 0.00 0.00 0.00 67 1009.1
20260502034022 54 162 0.0 0.9 0.00 0.00 0.00 67 1009.0
20260502033952 54 162 0.0 0.9 0.00 0.00 0.00 67 1009.0
20260502033852 54 162 0.0 0.9 0.00 0.00 0.00 68 1009.0
20260502033752 54 234 0.0 0.9 0.00 0.00 0.00 67 1009.0
20260502033715 54 234 0.0 0.0 0.00 0.00 0.00 67 1008.9
20260502033650 54 234 0.0 0.0 0.00 0.00 0.00 67 1008.9
20260502033602 54 234 0.0 0.0 0.00 0.00 0.00 67 1009.0
20260502033558 54 234 0.0 0.0 0.00 0.00 0.00 67 1008.9
20260502033552 54 234 0.0 0.0 0.00 0.00 0.00 67 1009.0
20260502033347 54 234 0.0 1.7 0.00 0.00 0.00 67 1009.0
20260502033247 54 0 0.0 3.5 0.00 0.00 0.00 66 1009.0
20260502033213 54 234 0.0 3.5 0.00 0.00 0.00 67 1009.1
20260502033146 54 234 0.0 3.5 0.00 0.00 0.00 67 1009.1
20260502033047 54 234 0.0 3.5 0.00 0.00 0.00 66 1009.1
20260502033022 54 234 0.0 3.5 0.00 0.00 0.00 66 1009.1
20260502032947 54 234 0.0 3.5 0.00 0.00 0.00 66 1009.1
20260502032846 54 190 0.0 3.5 0.00 0.00 0.00 66 1009.1
20260502032746 54 190 0.0 3.5 0.00 0.00 0.00 66 1009.2
20260502032712 54 190 0.0 3.5 0.00 0.00 0.00 66 1009.2
20260502032643 54 190 0.0 3.5 0.00 0.00 0.00 66 1009.2
20260502032543 54 190 0.0 3.5 0.00 0.00 0.00 66 1009.3
20260502032522 54 190 0.0 3.5 0.00 0.00 0.00 66 1009.3
20260502032442 54 190 0.0 3.5 0.00 0.00 0.00 66 1009.3
20260502032341 54 188 0.0 3.5 0.00 0.00 0.00 66 1009.2
20260502032213 54 182 0.0 1.7 0.00 0.00 0.00 66 1009.2
20260502032205 54 181 0.0 6.1 0.00 0.00 0.00 66 1009.2
20260502032052 54 181 0.0 6.1 0.00 0.00 0.00 66 1009.2
20260502032022 54 181 0.0 4.3 0.00 0.00 0.00 66 1009.1
20260502031935 54 178 0.0 6.1 0.00 0.00 0.00 65 1009.1
20260502031839 54 178 0.0 6.1 0.00 0.00 0.00 65 1009.1
20260502031820 54 178 0.0 6.1 0.00 0.00 0.00 65 1009.1
20260502031635 54 171 0.0 6.1 0.00 0.00 0.00 65 1009.1
20260502031548 55 169 0.0 6.1 0.00 0.00 0.00 65 1009.1
20260502031544 54 0 0.0 6.1 0.00 0.00 0.00 65 1009.1
20260502031521 54 171 0.0 4.3 0.00 0.00 0.00 65 1009.1
20260502031334 55 183 0.0 6.1 0.00 0.00 0.00 65 1009.2
20260502031232 55 192 0.0 6.1 0.00 0.00 0.00 65 1009.1
20260502031211 55 144 0.0 6.1 0.00 0.00 0.00 65 1009.2
20260502031133 55 167 0.0 0.9 0.00 0.00 0.00 64 1009.2
20260502031032 55 167 0.0 0.9 0.00 0.00 0.00 64 1009.2
20260502031022 55 167 0.0 0.9 0.00 0.00 0.00 64 1009.2
20260502030934 55 167 0.0 0.9 0.00 0.00 0.00 64 1009.2
20260502030927 55 160 0.0 4.3 0.00 0.00 0.00 64 1009.2
20260502030831 55 166 0.0 0.9 0.00 0.00 0.00 64 1009.2
20260502030818 55 194 0.0 4.3 0.00 0.00 0.00 64 1009.2
20260502030630 55 186 0.0 4.3 0.00 0.00 0.00 63 1009.2
20260502030552 55 192 0.0 4.3 0.00 0.00 0.00 63 1009.1
20260502030530 55 181 0.0 4.3 0.00 0.00 0.00 63 1009.2
20260502030430 55 192 0.0 4.3 0.00 0.00 0.00 63 1009.1
20260502030342 55 155 0.0 4.3 0.00 0.00 0.00 63 1009.3
20260502030338 55 179 0.0 4.3 0.00 0.00 0.00 63 1009.2
20260502030211 55 165 0.0 4.3 0.00 0.00 0.00 63 1009.3
20260502030129 55 203 0.0 4.3 0.00 0.00 0.00 62 1009.3
20260502030027 55 160 0.0 4.3 0.00 0.00 0.00 62 1009.4
20260502030022 55 144 0.0 4.3 0.00 0.00 0.00 62 1009.4
20260502025927 55 156 0.0 4.3 0.00 0.00 0.00 62 1009.4
20260502025840 55 180 0.0 3.5 0.00 0.00 0.00 62 1009.3
20260502025836 55 175 0.0 4.3 0.00 0.00 0.00 62 1009.3
20260502025710 55 180 0.0 3.5 0.00 0.00 0.00 62 1009.2
20260502025626 55 182 0.0 3.5 0.00 0.00 0.00 62 1009.2
20260502025537 55 190 0.0 3.5 0.00 0.00 0.00 61 1009.1
20260502025526 55 190 0.0 3.5 0.00 0.00 0.00 61 1009.1
20260502025443 55 164 0.0 0.0 0.00 0.00 0.00 61 1009.2
20260502025439 55 161 0.0 0.0 0.00 0.00 0.00 61 1009.3
20260502025435 55 160 0.0 0.0 0.00 0.00 0.00 61 1009.1
20260502025316 55 180 0.0 0.0 0.00 0.00 0.00 61 1009.3
20260502025123 55 176 0.0 0.0 0.00 0.00 0.00 61 1009.3
20260502025040 55 157 0.0 0.0 0.00 0.00 0.00 61 1009.3
20260502025038 55 162 0.0 0.0 0.00 0.00 0.00 61 1009.3
20260502025036 55 180 0.0 0.0 0.00 0.00 0.00 60 1009.2
20260502025032 55 162 0.0 0.0 0.00 0.00 0.00 61 1009.3
20260502024847 55 180 0.0 0.0 0.00 0.00 0.00 60 1009.2
20260502024842 55 148 0.0 0.0 0.00 0.00 0.00 61 1009.3
20260502024833 55 180 0.0 0.0 0.00 0.00 0.00 60 1009.3
20260502024522 55 180 0.0 0.0 0.00 0.00 0.00 60 1009.3
20260502024518 55 180 0.0 0.0 0.00 0.00 0.00 60 1009.3
20260502024415 55 170 0.0 0.0 0.00 0.00 0.00 61 1009.3
20260502024315 55 169 0.0 0.0 0.00 0.00 0.00 61 1009.3
20260502024210 56 169 0.0 0.0 0.00 0.00 0.00 60 1009.4
20260502024115 56 169 0.0 0.0 0.00 0.00 0.00 60 1009.4
20260502024022 56 169 0.0 0.0 0.00 0.00 0.00 60 1009.5
20260502024015 56 169 0.0 0.0 0.00 0.00 0.00 60 1009.5
20260502023937 56 169 0.0 0.0 0.00 0.00 0.00 60 1009.5
20260502023931 56 169 0.0 0.0 0.00 0.00 0.00 60 1009.4
20260502023922 56 169 0.0 0.0 0.00 0.00 0.00 60 1009.5
20260502023613 56 169 0.0 0.0 0.00 0.00 0.00 59 1009.5
20260502023541 56 169 0.0 0.0 0.00 0.00 0.00 59 1009.5
20260502023537 56 169 0.0 0.0 0.00 0.00 0.00 59 1009.6
20260502023532 56 169 0.0 0.0 0.00 0.00 0.00 59 1009.5
20260502023522 56 169 0.0 0.0 0.00 0.00 0.00 59 1009.5
20260502023212 56 201 0.0 0.0 0.00 0.00 0.00 59 1009.6
20260502023206 56 0 0.0 0.0 0.00 0.00 0.00 59 1009.6
20260502023112 56 201 0.0 0.0 0.00 0.00 0.00 59 1009.6
20260502023024 56 190 0.0 0.0 0.00 0.00 0.00 59 1009.6
20260502023020 56 203 0.0 0.0 0.00 0.00 0.00 59 1009.6
20260502022810 56 163 0.0 0.9 0.00 0.00 0.00 58 1009.6
20260502022803 56 178 0.0 0.9 0.00 0.00 0.00 58 1009.5
20260502022759 56 178 0.0 0.9 0.00 0.00 0.00 58 1009.6
20260502022752 56 149 0.0 0.9 0.00 0.00 0.00 58 1009.6
20260502022745 56 172 0.0 0.9 0.00 0.00 0.00 58 1009.6
20260502022633 56 178 0.0 0.9 0.00 0.00 0.00 58 1009.6
20260502022522 56 178 0.0 0.9 0.00 0.00 0.00 58 1009.5
20260502022207 56 178 0.0 0.9 0.00 0.00 0.00 58 1009.5
20260502022105 56 171 0.0 0.9 0.00 0.00 0.00 58 1009.5
20260502022022 56 163 0.0 0.9 0.00 0.00 0.00 58 1009.5
20260502022005 56 163 0.0 0.9 0.00 0.00 0.00 58 1009.5
20260502021904 56 163 0.0 0.9 0.00 0.00 0.00 57 1009.5
20260502021836 56 163 0.0 0.9 0.00 0.00 0.00 57 1009.7
20260502021832 56 169 0.0 0.9 0.00 0.00 0.00 57 1009.7
20260502021826 56 153 0.0 0.9 0.00 0.00 0.00 58 1009.6
20260502021713 56 163 0.0 0.9 0.00 0.00 0.00 57 1009.7
20260502021522 56 182 0.0 0.0 0.00 0.00 0.00 57 1009.7
20260502021500 56 172 0.0 0.9 0.00 0.00 0.00 57 1009.7
20260502021414 56 0 0.0 0.9 0.00 0.00 0.00 57 1009.7
20260502021410 56 163 0.0 0.9 0.00 0.00 0.00 58 1009.7
20260502021205 56 130 0.0 0.9 0.00 0.00 0.00 57 1009.7
20260502021200 56 0 0.0 0.9 0.00 0.00 0.00 57 1009.7
20260502021059 56 198 0.0 0.9 0.00 0.00 0.00 58 1009.7
20260502021022 56 178 0.0 0.9 0.00 0.00 0.00 58 1009.6
20260502020959 56 178 0.0 0.9 0.00 0.00 0.00 58 1009.6
20260502020859 56 179 0.0 0.9 0.00 0.00 0.00 58 1009.6
20260502020757 56 172 0.0 2.6 0.00 0.00 0.00 58 1009.6
20260502020658 56 0 0.0 2.6 0.00 0.00 0.00 58 1009.6
20260502020557 56 132 0.0 2.6 0.00 0.00 0.00 58 1009.5
20260502020522 56 132 0.0 2.6 0.00 0.00 0.00 57 1009.5
20260502020456 56 132 0.0 2.6 0.00 0.00 0.00 57 1009.5
20260502020422 56 151 0.0 2.6 0.00 0.00 0.00 57 1009.5
20260502020309 56 160 0.0 2.6 0.00 0.00 0.00 58 1009.4
20260502020300 56 176 0.0 4.3 0.00 0.00 0.00 57 1009.4
20260502020054 56 176 0.0 4.3 0.00 0.00 0.00 58 1009.5
20260502020022 56 175 0.0 4.3 0.00 0.00 0.00 58 1009.5
20260502015954 56 188 0.0 4.3 0.00 0.00 0.00 58 1009.5
20260502015852 56 188 0.0 4.3 0.00 0.00 0.00 57 1009.4
20260502015752 56 194 0.0 4.3 0.00 0.00 0.00 57 1009.5
20260502015711 56 198 0.0 4.3 0.00 0.00 0.00 57 1009.5
20260502015706 56 194 0.0 4.3 0.00 0.00 0.00 57 1009.5
20260502015700 56 0 0.0 4.3 0.00 0.00 0.00 58 1009.5
20260502015522 56 192 0.0 4.3 0.00 0.00 0.00 57 1009.4
20260502015449 56 192 0.0 4.3 0.00 0.00 0.00 57 1009.4
20260502015349 56 213 0.0 4.3 0.00 0.00 0.00 58 1009.4
20260502015249 56 180 0.0 3.5 0.00 0.00 0.00 58 1009.4
20260502015156 56 176 0.0 3.5 0.00 0.00 0.00 57 1009.4
20260502015148 55 176 0.0 3.5 0.00 0.00 0.00 58 1009.4
20260502015048 55 173 0.0 3.5 0.00 0.00 0.00 58 1009.4
20260502015022 55 205 0.0 2.6 0.00 0.00 0.00 58 1009.3
20260502014947 55 187 0.0 3.5 0.00 0.00 0.00 58 1009.3
20260502014846 55 143 0.0 3.5 0.00 0.00 0.00 58 1009.1
20260502014746 55 165 0.0 3.5 0.00 0.00 0.00 58 1009.1
20260502014657 55 0 0.0 2.6 0.00 0.00 0.00 58 1009.1
20260502014646 55 160 0.0 2.6 0.00 0.00 0.00 58 1009.1
20260502014546 55 176 0.0 2.6 0.00 0.00 0.00 58 1009.1
20260502014522 55 171 0.0 2.6 0.00 0.00 0.00 58 1009.2
20260502014445 55 136 0.0 2.6 0.00 0.00 0.00 58 1009.2
20260502014345 55 209 0.0 2.6 0.00 0.00 0.00 58 1009.3
20260502014243 55 160 0.0 0.9 0.00 0.00 0.00 58 1009.3
20260502014157 55 168 0.0 0.9 0.00 0.00 0.00 59 1009.3
20260502014143 55 179 0.0 0.9 0.00 0.00 0.00 59 1009.3
20260502014042 54 200 0.0 0.9 0.00 0.00 0.00 59 1009.3
20260502014037 54 200 0.0 0.9 0.00 0.00 0.00 59 1009.4
20260502013953 54 174 0.0 0.9 0.00 0.00 0.00 59 1009.4
20260502013949 54 203 0.0 0.9 0.00 0.00 0.00 59 1009.4
20260502013740 54 173 0.0 0.9 0.00 0.00 0.00 59 1009.3
20260502013639 54 192 0.0 0.0 0.00 0.00 0.00 60 1009.3
20260502013540 54 194 0.0 0.0 0.00 0.00 0.00 60 1009.3
20260502013531 53 123 0.0 0.0 0.00 0.00 0.00 60 1009.2
20260502013522 54 360 0.0 0.0 0.00 0.00 0.00 60 1009.2
20260502013418 53 186 0.0 0.0 0.00 0.00 0.00 61 1009.1
20260502013412 53 171 0.0 0.0 0.00 0.00 0.00 60 1009.2
20260502013135 53 202 0.0 0.0 0.00 0.00 0.00 61 1009.1
20260502013035 53 189 0.0 0.0 0.00 0.00 0.00 61 1009.1
20260502013022 53 189 0.0 0.0 0.00 0.00 0.00 62 1009.1
20260502012934 53 202 0.0 0.0 0.00 0.00 0.00 62 1009.1
20260502012832 53 0 0.0 0.0 0.00 0.00 0.00 62 1009.0
20260502012730 53 162 0.0 0.0 0.00 0.00 0.00 62 1009.0
20260502012654 52 173 0.0 0.0 0.00 0.00 0.00 62 1009.0
20260502012629 52 177 0.0 0.0 0.00 0.00 0.00 62 1009.0
20260502012529 52 177 0.0 0.0 0.00 0.00 0.00 63 1009.0
20260502012522 52 177 0.0 0.0 0.00 0.00 0.00 63 1009.1
20260502012429 52 177 0.0 0.0 0.00 0.00 0.00 63 1009.1
20260502012328 52 177 0.0 0.0 0.00 0.00 0.00 63 1009.0
20260502012228 52 177 0.0 0.0 0.00 0.00 0.00 63 1009.0
20260502012128 52 177 0.0 0.0 0.00 0.00 0.00 63 1009.0
20260502012037 52 177 0.0 0.0 0.00 0.00 0.00 63 1009.1
20260502012026 52 177 0.0 0.0 0.00 0.00 0.00 63 1009.1
20260502011939 52 177 0.0 0.0 0.00 0.00 0.00 63 1009.1
20260502011935 52 177 0.0 0.0 0.00 0.00 0.00 63 1009.1
20260502011725 52 177 0.0 0.0 0.00 0.00 0.00 62 1009.1
20260502011654 52 177 0.0 0.0 0.00 0.00 0.00 62 1009.1
20260502011624 52 0 0.0 0.0 0.00 0.00 0.00 63 1009.1
20260502011537 52 196 0.0 0.0 0.00 0.00 0.00 64 1009.1
20260502011523 52 196 0.0 0.0 0.00 0.00 0.00 64 1009.1
20260502011423 52 200 0.0 0.0 0.00 0.00 0.00 64 1009.1
20260502011322 52 207 0.0 0.0 0.00 0.00 0.00 65 1009.0
20260502011242 53 207 0.0 0.0 0.00 0.00 0.00 63 1009.0
20260502011236 52 207 0.0 0.0 0.00 0.00 0.00 64 1009.0
20260502011228 52 207 0.0 0.0 0.00 0.00 0.00 64 1009.0
20260502011022 53 207 0.0 0.0 0.00 0.00 0.00 62 1009.0
20260502011020 53 207 0.0 0.0 0.00 0.00 0.00 62 1009.0
20260502010920 53 0 0.0 0.0 0.00 0.00 0.00 63 1009.0
20260502010819 53 211 0.0 0.0 0.00 0.00 0.00 62 1009.0
20260502010718 53 211 0.0 0.0 0.00 0.00 0.00 61 1009.0
20260502010653 53 211 0.0 0.0 0.00 0.00 0.00 61 1009.0
20260502010631 53 211 0.0 0.0 0.00 0.00 0.00 62 1008.9
20260502010626 53 211 0.0 0.0 0.00 0.00 0.00 62 1009.0
20260502010522 53 211 0.0 0.0 0.00 0.00 0.00 62 1008.9
20260502010417 53 211 0.0 0.0 0.00 0.00 0.00 62 1008.9
20260502010329 53 211 0.0 0.0 0.00 0.00 0.00 62 1008.8
20260502010325 53 211 0.0 0.0 0.00 0.00 0.00 61 1008.8
20260502010153 53 211 0.0 0.0 0.00 0.00 0.00 62 1008.8
20260502010114 53 211 0.0 0.0 0.00 0.00 0.00 61 1008.8
20260502010022 54 211 0.0 0.0 0.00 0.00 0.00 62 1008.8
20260502010013 53 211 0.0 0.0 0.00 0.00 0.00 62 1008.8
20260502005926 54 211 0.0 0.0 0.00 0.00 0.00 63 1008.8
20260502005922 54 211 0.0 0.0 0.00 0.00 0.00 63 1008.8
20260502005713 54 211 0.0 0.0 0.00 0.00 0.00 62 1008.8
20260502005653 54 211 0.0 0.0 0.00 0.00 0.00 62 1008.8
20260502005611 54 211 0.0 0.0 0.00 0.00 0.00 62 1008.9
20260502005522 54 211 0.0 0.0 0.00 0.00 0.00 62 1008.9
20260502005511 54 211 0.0 0.0 0.00 0.00 0.00 62 1008.9
20260502005410 54 211 0.0 0.0 0.00 0.00 0.00 62 1008.9
20260502005309 54 211 0.0 0.0 0.00 0.00 0.00 61 1008.9
20260502005209 54 211 0.0 0.0 0.00 0.00 0.00 61 1008.9
20260502005151 55 211 0.0 0.0 0.00 0.00 0.00 60 1008.9
20260502005108 55 211 0.0 0.0 0.00 0.00 0.00 60 1008.9
20260502005022 55 211 0.0 0.0 0.00 0.00 0.00 60 1008.8
20260502005008 55 211 0.0 0.0 0.00 0.00 0.00 60 1008.8
20260502004906 55 211 0.0 0.0 0.00 0.00 0.00 60 1008.8
20260502004806 55 211 0.0 0.0 0.00 0.00 0.00 60 1008.8
20260502004720 55 211 0.0 0.0 0.00 0.00 0.00 59 1008.8
20260502004712 55 211 0.0 0.0 0.00 0.00 0.00 59 1008.8
20260502004552 55 211 0.0 0.0 0.00 0.00 0.00 59 1008.9
20260502004533 55 211 0.0 0.0 0.00 0.00 0.00 57 1008.9
20260502004528 55 211 0.0 0.0 0.00 0.00 0.00 57 1008.8
20260502004523 55 211 0.0 0.0 0.00 0.00 0.00 57 1008.9
20260502004203 55 211 0.0 0.0 0.00 0.00 0.00 56 1008.8
20260502004151 55 211 0.0 0.0 0.00 0.00 0.00 56 1008.8
20260502004102 56 211 0.0 0.0 0.00 0.00 0.00 55 1008.7
20260502004023 56 211 0.0 0.0 0.00 0.00 0.00 54 1008.7
20260502004000 56 211 0.0 0.0 0.00 0.00 0.00 54 1008.7
20260502003900 56 211 0.0 0.0 0.00 0.00 0.00 53 1008.6
20260502003759 56 211 0.0 0.0 0.00 0.00 0.00 53 1008.7
20260502003649 56 211 0.0 0.0 0.00 0.00 0.00 53 1008.6
20260502003600 56 211 0.0 0.0 0.00 0.00 0.00 53 1008.6
20260502003537 56 211 0.0 0.0 0.00 0.00 0.00 53 1008.6
20260502003500 56 211 0.0 0.0 0.00 0.00 0.00 53 1008.6
20260502003358 56 211 0.0 0.0 0.00 0.00 0.00 53 1008.6
20260502003258 56 211 0.0 0.0 0.00 0.00 0.00 52 1008.6
20260502003148 56 211 0.0 0.0 0.00 0.00 0.00 52 1008.6
20260502003118 56 211 0.0 0.0 0.00 0.00 0.00 52 1008.6
20260502003022 57 211 0.0 0.0 0.00 0.00 0.00 52 1008.6
20260502003005 57 211 0.0 0.0 0.00 0.00 0.00 52 1008.6
20260502002755 57 211 0.0 0.0 0.00 0.00 0.00 51 1008.5
20260502002647 57 211 0.0 0.0 0.00 0.00 0.00 52 1008.5
20260502002555 57 211 0.0 0.0 0.00 0.00 0.00 52 1008.5
20260502002522 57 211 0.0 0.0 0.00 0.00 0.00 52 1008.5
20260502002454 57 211 0.0 0.0 0.00 0.00 0.00 52 1008.5
20260502002354 57 211 0.0 0.0 0.00 0.00 0.00 52 1008.5
20260502002326 57 211 0.0 0.0 0.00 0.00 0.00 51 1008.5
20260502002322 58 211 0.0 0.0 0.00 0.00 0.00 51 1008.5
20260502002316 57 211 0.0 0.0 0.00 0.00 0.00 51 1008.5
20260502002200 57 211 0.0 0.0 0.00 0.00 0.00 51 1008.5
20260502002022 58 211 0.0 0.0 0.00 0.00 0.00 51 1008.6
20260502001952 58 211 0.0 0.0 0.00 0.00 0.00 51 1008.6
20260502001852 58 211 0.0 0.0 0.00 0.00 0.00 51 1008.5
20260502001751 58 211 0.0 0.0 0.00 0.00 0.00 50 1008.6
20260502001712 58 211 0.0 0.0 0.00 0.00 0.00 50 1008.7
20260502001659 58 211 0.0 0.0 0.00 0.00 0.00 50 1008.6
20260502001522 58 211 0.0 0.0 0.00 0.00 0.00 50 1008.6
20260502001451 58 211 0.0 0.0 0.00 0.00 0.00 50 1008.7
20260502001404 58 211 0.0 0.0 0.00 0.00 0.00 50 1008.6
20260502001358 58 211 0.0 0.0 0.00 0.00 0.00 50 1008.7
20260502001208 58 211 0.0 0.0 0.00 0.00 0.00 51 1008.6
20260502001156 58 211 0.0 0.0 0.00 0.00 0.00 50 1008.6
20260502000948 58 211 0.0 0.0 0.00 0.00 0.00 50 1008.6
20260502000904 59 211 0.0 0.0 0.00 0.00 0.00 50 1008.7
20260502000848 58 211 0.0 0.0 0.00 0.00 0.00 50 1008.7
20260502000758 58 211 0.0 0.0 0.00 0.00 0.00 50 1008.7
20260502000749 59 211 0.0 0.0 0.00 0.00 0.00 50 1008.7
20260502000547 59 211 0.0 0.0 0.00 0.00 0.00 49 1008.7
20260502000522 59 211 0.0 0.0 0.00 0.00 0.00 49 1008.6
20260502000447 59 211 0.0 0.0 0.00 0.00 0.00 48 1008.7
20260502000347 59 211 0.0 0.0 0.00 0.00 0.00 48 1008.7
20260502000247 59 211 0.0 0.0 0.00 0.00 0.00 48 1008.7
20260502000141 59 211 0.0 0.0 0.00 0.00 0.00 48 1008.7
20260502000044 59 211 0.0 0.0 0.00 0.00 0.00 48 1008.7
20260502000022 59 211 0.0 0.0 0.00 0.00 0.00 48 1008.5
20260501235944 59 211 0.0 0.0 0.00 0.00 0.00 47 1008.6
20260501235915 59 211 0.0 0.0 0.00 0.00 0.00 47 1008.6
20260501235911 59 211 0.0 0.0 0.00 0.00 0.00 47 1008.6
20260501235905 59 211 0.0 0.0 0.00 0.00 0.00 47 1008.7
20260501235643 59 211 0.0 0.0 0.00 0.00 0.00 47 1008.6
20260501235540 59 211 0.0 0.0 0.00 0.00 0.00 47 1008.6
20260501235523 59 360 0.0 0.0 0.00 0.00 0.00 47 1008.4
20260501235453 60 211 0.0 0.0 0.00 0.00 0.00 46 1008.6
20260501235447 59 211 0.0 0.0 0.00 0.00 0.00 47 1008.6
20260501235238 60 211 0.0 0.0 0.00 0.00 0.00 47 1008.6
20260501235137 60 0 0.0 0.0 0.00 0.00 0.00 47 1008.5
20260501235038 60 0 0.0 0.0 0.00 0.00 0.00 46 1008.5
20260501235022 60 360 0.0 0.0 0.00 0.00 0.00 46 1008.4
20260501234937 60 0 0.0 0.0 0.00 0.00 0.00 46 1008.5
20260501234836 60 0 0.0 0.0 0.00 0.00 0.00 46 1008.4
20260501234735 60 0 0.0 0.0 0.00 0.00 0.00 46 1008.4
20260501234634 60 0 0.0 0.0 0.00 0.00 0.00 46 1008.4
20260501234534 60 0 0.0 0.0 0.00 0.00 0.00 45 1008.4
20260501234522 60 360 0.0 0.0 0.00 0.00 0.00 46 1008.3
20260501234449 60 0 0.0 0.0 0.00 0.00 0.00 45 1008.4
20260501234443 60 0 0.0 0.0 0.00 0.00 0.00 46 1008.4
20260501234235 60 0 0.0 0.0 0.00 0.00 0.00 45 1008.4
20260501234133 60 0 0.0 0.0 0.00 0.00 0.00 45 1008.4
20260501234053 60 360 0.0 0.0 0.00 0.00 0.00 45 1008.3
20260501234033 60 0 0.0 0.0 0.00 0.00 0.00 45 1008.5
20260501233947 60 0 0.0 0.0 0.00 0.00 0.00 45 1008.4
20260501233941 60 0 0.0 0.0 0.00 0.00 0.00 45 1008.4
20260501233732 61 0 0.0 0.0 0.00 0.00 0.00 45 1008.4
20260501233631 61 0 0.0 0.0 0.00 0.00 0.00 45 1008.4
20260501233530 61 0 0.0 0.0 0.00 0.00 0.00 44 1008.3
20260501233522 61 360 0.0 0.0 0.00 0.00 0.00 44 1008.2
20260501233430 61 0 0.0 1.7 0.00 0.00 0.00 44 1008.3
20260501233329 61 0 0.0 1.7 0.00 0.00 0.00 44 1008.3
20260501233229 61 0 0.0 1.7 0.00 0.00 0.00 44 1008.2
20260501233129 61 0 0.0 1.7 0.00 0.00 0.00 44 1008.2
20260501233028 61 0 0.0 1.7 0.00 0.00 0.00 44 1008.2
20260501233022 61 360 0.0 1.7 0.00 0.00 0.00 44 1008.1
20260501232941 61 0 0.0 1.7 0.00 0.00 0.00 43 1008.1
20260501232936 61 0 0.0 1.7 0.00 0.00 0.00 43 1008.2
20260501232724 61 0 0.0 1.7 0.00 0.00 0.00 43 1008.1
20260501232623 61 0 0.0 1.7 0.00 0.00 0.00 43 1008.2
20260501232537 61 360 0.0 1.7 0.00 0.00 0.00 43 1008.0
20260501232524 61 0 0.0 1.7 0.00 0.00 0.00 43 1008.2
20260501232423 61 0 0.0 0.9 0.00 0.00 0.00 43 1008.1
20260501232323 61 0 0.0 0.9 0.00 0.00 0.00 43 1008.1
20260501232222 61 0 0.0 0.9 0.00 0.00 0.00 43 1008.0
20260501232144 61 0 0.0 0.9 0.00 0.00 0.00 43 1008.0
20260501232037 61 360 0.0 0.9 0.00 0.00 0.00 43 1007.8
20260501232031 61 0 0.0 0.9 0.00 0.00 0.00 43 1008.0
20260501231821 61 0 0.0 0.9 0.00 0.00 0.00 43 1007.9
20260501231721 62 0 0.0 0.9 0.00 0.00 0.00 43 1007.9
20260501231633 62 0 0.0 0.9 0.00 0.00 0.00 44 1007.9
20260501231620 62 0 0.0 0.9 0.00 0.00 0.00 43 1007.9
20260501231522 62 360 0.0 0.9 0.00 0.00 0.00 43 1007.8
20260501231519 62 0 0.0 0.9 0.00 0.00 0.00 43 1007.9
20260501231432 62 0 0.0 0.0 0.00 0.00 0.00 43 1007.9
20260501231426 62 0 0.0 0.0 0.00 0.00 0.00 43 1007.9
20260501231217 62 0 0.0 0.9 0.00 0.00 0.00 43 1007.9
20260501231138 62 0 0.0 2.6 0.00 0.00 0.00 43 1007.9
20260501231024 62 0 0.0 2.6 0.00 0.00 0.00 43 1007.9
20260501231022 62 360 0.0 2.6 0.00 0.00 0.00 43 1007.7
20260501230816 62 0 0.0 3.5 0.00 0.00 0.00 43 1007.8
20260501230714 62 0 0.0 3.5 0.00 0.00 0.00 42 1007.8
20260501230628 62 0 0.0 3.5 0.00 0.00 0.00 42 1007.8
20260501230613 62 0 0.0 3.5 0.00 0.00 0.00 42 1007.9
20260501230552 62 360 0.0 3.5 0.00 0.00 0.00 41 1007.8
20260501230512 62 0 0.0 3.5 0.00 0.00 0.00 41 1007.9
20260501230413 62 0 0.0 3.5 0.00 0.00 0.00 42 1007.8
20260501230312 62 0 0.0 3.5 0.00 0.00 0.00 42 1007.8
20260501230211 62 0 0.0 3.5 0.00 0.00 0.00 42 1007.9
20260501230126 62 0 0.0 3.5 0.00 0.00 0.00 42 1007.9
20260501230109 62 0 0.0 3.5 0.00 0.00 0.00 42 1007.9
20260501230022 62 360 0.0 8.7 0.00 0.00 0.00 41 1007.8
20260501230009 62 0 0.0 8.7 0.00 0.00 0.00 41 1007.9
20260501225926 62 0 0.0 8.7 0.00 0.00 0.00 41 1007.9
20260501225922 62 0 0.0 8.7 0.00 0.00 0.00 41 1007.9
20260501225916 62 0 0.0 8.7 0.00 0.00 0.00 41 1007.9
20260501225747 62 0 0.0 8.7 0.00 0.00 0.00 42 1007.9
20260501225632 62 0 0.0 8.7 0.00 0.00 0.00 41 1007.9
20260501225522 62 360 0.0 8.7 0.00 0.00 0.00 42 1007.6
20260501225520 62 0 0.0 8.7 0.00 0.00 0.00 41 1007.8
20260501225515 62 0 0.0 8.7 0.00 0.00 0.00 42 1007.8
20260501225359 62 0 0.0 8.7 0.00 0.00 0.00 41 1007.8
20260501225355 63 0 0.0 5.2 0.00 0.00 0.00 42 1007.8
20260501225348 62 0 0.0 8.7 0.00 0.00 0.00 42 1007.8
20260501225339 62 0 0.0 8.7 0.00 0.00 0.00 42 1007.8
20260501225022 63 360 1.7 5.2 0.00 0.00 0.00 42 1007.6
20260501225011 63 0 0.0 5.2 0.00 0.00 0.00 42 1007.8
20260501224830 63 0 0.0 7.8 0.00 0.00 0.00 41 1007.7
20260501224825 63 0 0.0 5.2 0.00 0.00 0.00 42 1007.7
20260501224816 63 0 0.0 7.8 0.00 0.00 0.00 42 1007.7
20260501224537 63 360 0.0 7.8 0.00 0.00 0.00 42 1007.6
20260501224459 63 0 0.0 7.8 0.00 0.00 0.00 42 1007.8
20260501224358 63 0 0.0 7.8 0.00 0.00 0.00 41 1007.8
20260501224258 63 0 0.0 7.8 0.00 0.00 0.00 41 1007.8
20260501224157 63 0 0.0 7.8 0.00 0.00 0.00 41 1007.8
20260501224123 63 0 0.0 7.8 0.00 0.00 0.00 41 1007.8
20260501224056 63 0 0.0 7.8 0.00 0.00 0.00 40 1007.7
20260501224037 63 360 0.0 7.8 0.00 0.00 0.00 40 1007.5
20260501223955 63 0 0.0 7.8 0.00 0.00 0.00 40 1007.7
20260501223855 63 0 0.0 7.8 0.00 0.00 0.00 40 1007.8
20260501223755 63 0 0.0 3.5 0.00 0.00 0.00 40 1007.8
20260501223654 64 0 0.0 3.5 0.00 0.00 0.00 40 1007.9
20260501223623 64 0 0.0 3.5 0.00 0.00 0.00 40 1008.0
20260501223554 64 0 0.0 3.5 0.00 0.00 0.00 39 1007.9
20260501223522 64 360 0.0 1.7 0.00 0.00 0.00 39 1007.7
20260501223453 64 0 0.0 3.5 0.00 0.00 0.00 39 1008.0
20260501223414 64 0 0.0 3.5 0.00 0.00 0.00 40 1008.0
20260501223301 64 0 0.0 3.5 0.00 0.01 0.00 39 1008.0
20260501223120 64 0 0.0 3.5 0.00 0.01 0.00 39 1008.0
20260501223052 64 0 0.0 3.5 0.00 0.01 0.00 39 1008.1
20260501223022 64 360 0.0 1.7 0.00 0.01 0.00 39 1007.8
20260501222951 64 0 0.0 3.5 0.00 0.01 0.00 39 1008.1
20260501222908 65 170 0.0 0.0 0.00 0.01 0.00 39 1008.1
20260501222904 65 232 0.0 1.7 0.00 0.01 0.00 39 1008.1
20260501222858 65 208 0.0 0.0 0.00 0.01 0.00 39 1008.1
20260501222728 65 232 0.0 0.0 0.00 0.01 0.00 39 1008.1
20260501222548 65 218 0.0 1.7 0.00 0.01 0.00 39 1008.1
20260501222522 65 218 0.0 1.7 0.00 0.01 0.00 39 1007.7
20260501222509 65 218 0.0 1.7 0.00 0.01 0.00 39 1008.0
20260501222355 65 200 0.0 1.7 0.00 0.01 0.00 38 1008.1
20260501222146 65 202 0.0 4.3 0.00 0.01 0.00 38 1008.2
20260501222120 65 205 0.0 4.3 0.00 0.01 0.00 39 1008.2
20260501222046 65 229 0.0 4.3 0.00 0.01 0.00 39 1008.2
20260501222022 65 229 0.0 4.3 0.00 0.01 0.00 39 1007.8
20260501222006 65 230 0.0 4.3 0.00 0.01 0.00 39 1008.1
20260501221853 65 186 0.0 4.3 0.00 0.01 0.00 39 1008.2
20260501221703 65 221 0.0 4.3 0.00 0.01 0.00 39 1008.2
20260501221657 65 209 0.0 4.3 0.00 0.01 0.00 38 1008.2
20260501221649 65 209 0.0 4.3 0.00 0.01 0.00 39 1008.2
20260501221522 65 250 0.0 4.3 0.00 0.01 0.00 39 1007.9
20260501221442 65 213 0.0 4.3 0.00 0.01 0.00 39 1008.2
20260501221351 64 192 0.0 2.6 0.00 0.01 0.00 39 1008.2
20260501221342 65 234 0.0 4.3 0.00 0.01 0.00 39 1008.2
20260501221241 64 234 0.0 4.3 0.00 0.01 0.00 38 1008.2
20260501221226 64 217 0.0 2.6 0.00 0.01 0.00 38 1008.2
20260501221039 64 220 0.0 0.9 0.00 0.01 0.00 39 1008.2
20260501221022 64 188 0.0 0.9 0.00 0.01 0.00 39 1007.9
20260501220939 64 188 0.0 0.9 0.00 0.01 0.00 39 1008.2
20260501220838 64 223 0.0 0.9 0.00 0.01 0.00 40 1008.2
20260501220738 64 194 0.0 0.9 0.00 0.01 0.00 40 1008.2
20260501220617 64 177 0.0 0.0 0.00 0.01 0.00 40 1008.2
20260501220550 64 177 0.0 0.9 0.00 0.01 0.00 40 1008.2
20260501220545 64 177 0.0 0.0 0.00 0.01 0.00 40 1008.2
20260501220522 64 177 0.0 0.0 0.00 0.01 0.00 40 1007.9
20260501220336 64 200 0.0 3.5 0.00 0.01 0.00 41 1008.3
20260501220235 64 200 0.0 11.3 0.00 0.01 0.00 41 1008.3
20260501220203 64 202 0.0 11.3 0.00 0.01 0.00 40 1008.1
20260501220119 64 202 0.0 11.3 0.00 0.01 0.00 40 1008.1
20260501220042 64 205 0.0 11.3 0.00 0.01 0.00 40 1008.1
20260501220035 64 202 0.0 11.3 0.00 0.01 0.00 40 1008.1
20260501220022 64 202 0.0 11.3 0.00 0.01 0.00 40 1007.9
20260501215731 63 224 0.0 11.3 0.00 0.01 0.00 40 1008.1
20260501215650 63 178 0.0 11.3 0.00 0.01 0.00 39 1008.0
20260501215645 63 201 0.0 11.3 0.00 0.01 0.00 40 1008.1
20260501215638 63 201 0.0 11.3 0.00 0.01 0.00 40 1008.1
20260501215522 63 210 0.0 11.3 0.00 0.01 0.00 39 1007.8
20260501215430 63 178 0.0 11.3 0.00 0.01 0.00 39 1008.0
20260501215328 63 128 0.0 11.3 0.00 0.01 0.00 40 1008.0
20260501215228 63 144 0.0 3.5 0.00 0.01 0.00 41 1008.0
20260501215127 63 204 0.0 3.5 0.00 0.01 0.00 40 1008.0
20260501215116 63 194 0.0 3.5 0.00 0.01 0.00 40 1008.0
20260501215027 63 192 0.0 3.5 0.00 0.01 0.00 40 1008.0
20260501215022 63 196 0.0 7.8 0.00 0.01 0.00 40 1007.7
20260501214927 63 234 0.0 7.8 0.00 0.01 0.00 41 1007.9
20260501214827 63 190 0.0 7.8 0.00 0.01 0.00 43 1007.9
20260501214727 63 196 0.0 7.8 0.00 0.01 0.00 42 1007.9
20260501214625 63 224 0.0 7.8 0.00 0.01 0.00 42 1007.9
20260501214615 63 186 0.0 7.8 0.00 0.01 0.00 42 1007.9
20260501214525 63 155 0.0 7.8 0.00 0.01 0.00 42 1007.8
20260501214522 63 169 0.0 7.8 0.00 0.01 0.00 42 1007.6
20260501214438 63 0 0.0 7.8 0.00 0.01 0.00 41 1007.8
20260501214433 63 140 0.0 7.8 0.00 0.01 0.00 42 1007.8
20260501214222 63 0 0.0 7.8 0.00 0.01 0.00 40 1007.9
20260501214115 63 0 0.0 7.8 0.00 0.01 0.00 39 1007.9
20260501214022 63 360 0.0 0.9 0.00 0.01 0.00 40 1007.8
20260501213921 63 0 0.0 0.0 0.00 0.01 0.00 39 1008.0
20260501213821 63 0 0.0 0.0 0.00 0.01 0.00 39 1007.9
20260501213720 63 0 0.0 0.0 0.00 0.01 0.00 39 1008.0
20260501213614 63 0 0.0 0.0 0.00 0.01 0.00 40 1008.0
20260501213523 64 360 0.0 1.7 0.00 0.01 0.00 40 1007.9
20260501213520 64 0 0.0 2.6 0.00 0.01 0.00 40 1008.1
20260501213418 64 0 0.0 5.2 0.00 0.01 0.00 40 1008.1
20260501213338 64 0 0.0 5.2 0.00 0.01 0.00 39 1008.1
20260501213317 64 0 0.0 5.2 0.00 0.01 0.00 40 1008.2
20260501213230 64 0 0.0 5.2 0.00 0.01 0.00 40 1008.1
20260501213221 64 0 0.0 5.2 0.00 0.01 0.00 39 1008.1
20260501213022 65 360 0.0 5.2 0.00 0.01 0.00 38 1007.8
20260501213015 65 0 0.0 5.2 0.00 0.01 0.00 38 1008.1
20260501212915 65 0 0.0 5.2 0.00 0.01 0.00 38 1008.1
20260501212813 65 0 0.0 5.2 0.00 0.01 0.00 37 1008.2
20260501212713 66 0 0.0 5.2 0.00 0.01 0.00 36 1008.2
20260501212612 66 0 0.0 5.2 0.00 0.01 0.00 36 1008.2
20260501212522 67 360 0.0 5.2 0.00 0.01 0.00 37 1007.9
20260501212512 67 0 0.0 5.2 0.00 0.01 0.00 37 1008.2
20260501212412 67 0 0.0 0.9 0.00 0.01 0.00 36 1008.2
20260501212326 67 261 0.0 0.9 0.00 0.01 0.00 36 1008.2
20260501212320 67 222 0.0 0.9 0.00 0.01 0.00 36 1008.2
20260501212112 67 250 0.0 0.9 0.00 0.01 0.00 36 1008.2
20260501212022 67 209 0.0 0.0 0.00 0.01 0.00 35 1008.0
20260501212011 67 209 0.0 0.9 0.00 0.01 0.00 36 1008.3
20260501211911 67 209 0.0 0.9 0.00 0.01 0.00 35 1008.2
20260501211811 67 217 0.0 0.9 0.00 0.01 0.00 35 1008.2
20260501211710 67 219 0.0 0.9 0.00 0.01 0.00 36 1008.1
20260501211616 67 223 0.0 0.9 0.00 0.01 0.00 37 1008.2
20260501211609 67 231 0.0 0.9 0.00 0.01 0.00 37 1008.2
20260501211522 67 263 0.0 2.6 0.00 0.01 0.00 37 1007.9
20260501211510 67 263 0.0 2.6 0.00 0.01 0.00 37 1008.2
20260501211408 67 263 0.0 2.6 0.00 0.01 0.00 34 1008.1
20260501211307 67 240 0.0 3.5 0.00 0.01 0.00 34 1008.1
20260501211207 67 220 0.0 3.5 0.00 0.01 0.00 34 1008.1
20260501211114 67 241 0.0 3.5 0.00 0.01 0.00 34 1008.1
20260501211106 67 259 0.0 3.5 0.00 0.01 0.00 34 1008.1
20260501211022 67 222 0.0 7.8 0.00 0.01 0.00 35 1007.8
20260501211006 67 265 0.0 7.8 0.00 0.01 0.00 35 1008.1
20260501210904 67 242 0.0 7.8 0.00 0.01 0.00 35 1008.1
20260501210804 67 236 0.0 7.8 0.00 0.01 0.00 36 1008.1
20260501210704 67 271 0.0 7.8 0.00 0.01 0.00 34 1008.1
20260501210613 67 303 0.0 7.8 0.00 0.01 0.00 34 1008.1
20260501210602 67 229 0.0 7.8 0.00 0.01 0.00 34 1008.1
20260501210522 67 198 0.0 7.8 0.00 0.01 0.00 35 1007.8
20260501210502 67 201 0.9 7.8 0.00 0.01 0.00 35 1008.1
20260501210400 67 265 0.0 7.8 0.00 0.01 0.00 35 1008.1
20260501210301 67 242 0.0 7.8 0.00 0.01 0.00 36 1008.1
20260501210200 67 259 0.0 7.8 0.00 0.01 0.00 36 1008.1
20260501210113 67 341 0.0 7.8 0.00 0.01 0.00 35 1008.1
20260501210059 67 260 0.0 7.8 0.00 0.01 0.00 35 1008.1
20260501210022 67 244 7.8 7.8 0.00 0.01 0.00 35 1007.8
20260501205959 67 222 0.0 3.5 0.00 0.01 0.00 35 1008.1
20260501205912 67 242 0.0 3.5 0.00 0.01 0.00 34 1008.2
20260501205908 67 294 0.0 3.5 0.00 0.01 0.00 36 1008.1
20260501205659 67 261 0.0 3.5 0.00 0.01 0.00 35 1008.1
20260501205612 67 309 0.0 3.5 0.00 0.01 0.00 34 1008.2
20260501205555 67 190 0.0 3.5 0.00 0.01 0.00 34 1008.2
20260501205537 67 227 0.0 3.5 0.00 0.01 0.00 35 1007.9
20260501205455 67 215 0.0 3.5 0.00 0.01 0.00 35 1008.2
20260501205406 67 232 0.0 0.0 0.00 0.01 0.00 35 1008.2
20260501205401 67 259 0.0 0.0 0.00 0.01 0.00 34 1008.2
20260501205211 67 177 0.0 0.0 0.00 0.01 0.00 35 1008.1
20260501205205 67 277 0.0 0.0 0.00 0.01 0.00 34 1008.1
20260501205157 67 195 0.0 0.0 0.00 0.01 0.00 34 1008.1
20260501205037 67 247 0.0 2.6 0.00 0.01 0.00 36 1007.9
20260501204949 67 260 0.0 2.6 0.00 0.01 0.00 36 1008.1
20260501204849 67 205 0.0 2.6 0.00 0.01 0.00 36 1008.1
20260501204748 67 205 0.0 2.6 0.00 0.01 0.00 35 1008.2
20260501204648 67 218 0.0 7.8 0.00 0.01 0.00 34 1008.2
20260501204612 67 250 0.0 7.8 0.00 0.01 0.00 34 1008.2
20260501204552 67 207 0.0 7.0 0.00 0.01 0.00 36 1007.9
20260501204548 67 250 0.0 7.8 0.00 0.01 0.00 36 1008.2
20260501204503 67 238 0.0 7.8 0.00 0.01 0.00 35 1008.2
20260501204459 67 248 0.0 7.8 0.00 0.01 0.00 36 1008.2
20260501204454 67 236 0.0 7.8 0.00 0.01 0.00 35 1008.1
20260501204308 67 257 0.0 7.8 0.00 0.01 0.00 36 1008.2
20260501204259 67 237 0.0 7.8 0.00 0.01 0.00 36 1008.2
20260501204144 67 207 0.0 7.8 0.00 0.01 0.00 35 1008.2
20260501204033 67 266 0.0 6.1 0.00 0.01 0.00 37 1008.2
20260501204027 67 225 0.0 7.8 0.00 0.01 0.00 35 1008.2
20260501204022 67 249 0.0 7.0 0.00 0.01 0.00 35 1007.9
20260501203805 67 198 0.0 7.8 0.00 0.01 0.00 34 1008.2
20260501203756 67 242 0.0 6.1 0.00 0.01 0.00 37 1008.2